Wetterdaten: Donnerstag, 07.08.2014
Datum Zeit Temp. Aussen +5cm Feuchte Auss Luftdruck Regen Sonnenschein Regendauer UV Solar Windben
07.08.2014 00:00 16,7 C 15,6 C 98 % 1013,6 hPa 0,0 l/m 0 min 0 min 0,0 UV-I 0 W/m 0,0 km/h (0 Bft)
07.08.2014 00:02 16,7 C 15,6 C 98 % 1013,6 hPa 0,0 l/m 0 min 0 min 0,0 UV-I 0 W/m 0,0 km/h (0 Bft)
07.08.2014 00:05 16,7 C 15,6 C 98 % 1013,6 hPa 0,0 l/m 0 min 0 min 0,0 UV-I 0 W/m 0,0 km/h (0 Bft)
07.08.2014 00:06 16,7 C 15,6 C 98 % 1013,6 hPa 0,0 l/m 0 min 0 min 0,0 UV-I 0 W/m 0,0 km/h (0 Bft)
07.08.2014 00:08 16,7 C 15,6 C 98 % 1013,7 hPa 0,0 l/m 0 min 0 min 0,0 UV-I 0 W/m 0,0 km/h (0 Bft)
07.08.2014 00:10 16,7 C 15,6 C 98 % 1013,6 hPa 0,0 l/m 0 min 0 min 0,0 UV-I 0 W/m 3,5 km/h (1 Bft)
07.08.2014 00:12 16,7 C 15,6 C 98 % 1013,6 hPa 0,0 l/m 0 min 0 min 0,0 UV-I 0 W/m 0,0 km/h (0 Bft)
07.08.2014 00:14 16,7 C 15,6 C 98 % 1013,6 hPa 0,0 l/m 0 min 2 min 0,0 UV-I 0 W/m 0,0 km/h (0 Bft)
07.08.2014 00:16 16,7 C 15,6 C 98 % 1013,6 hPa 0,0 l/m 0 min 2 min 0,0 UV-I 0 W/m 10,7 km/h (2 Bft)
07.08.2014 00:18 16,7 C 15,6 C 98 % 1013,6 hPa 0,0 l/m 0 min 2 min 0,0 UV-I 0 W/m 10,7 km/h (2 Bft)
07.08.2014 00:20 16,6 C 15,6 C 98 % 1013,6 hPa 0,0 l/m 0 min 2 min 0,0 UV-I 0 W/m 14,2 km/h (3 Bft)
07.08.2014 00:22 16,6 C 15,6 C 98 % 1013,6 hPa 0,0 l/m 0 min 2 min 0,0 UV-I 0 W/m 7,1 km/h (2 Bft)
07.08.2014 00:24 16,6 C 15,6 C 98 % 1013,5 hPa 0,0 l/m 0 min 2 min 0,0 UV-I 0 W/m 14,2 km/h (3 Bft)
07.08.2014 00:26 16,6 C 15,6 C 98 % 1013,5 hPa 0,0 l/m 0 min 2 min 0,0 UV-I 0 W/m 21,3 km/h (4 Bft)
07.08.2014 00:28 16,5 C 15,6 C 98 % 1013,5 hPa 0,0 l/m 0 min 2 min 0,0 UV-I 0 W/m 35,4 km/h (5 Bft)
07.08.2014 00:30 16,5 C 15,0 C 98 % 1013,5 hPa 0,0 l/m 0 min 2 min 0,0 UV-I 0 W/m 14,2 km/h (3 Bft)
07.08.2014 00:32 16,4 C 15,0 C 98 % 1013,5 hPa 0,0 l/m 0 min 2 min 0,0 UV-I 0 W/m 17,7 km/h (3 Bft)
07.08.2014 00:34 16,4 C 15,0 C 98 % 1013,4 hPa 0,0 l/m 0 min 2 min 0,0 UV-I 0 W/m 24,7 km/h (4 Bft)
07.08.2014 00:36 16,4 C 15,0 C 98 % 1013,5 hPa 0,0 l/m 0 min 2 min 0,0 UV-I 0 W/m 21,3 km/h (4 Bft)
07.08.2014 00:38 16,3 C 15,0 C 98 % 1013,4 hPa 0,0 l/m 0 min 2 min 0,0 UV-I 0 W/m 17,7 km/h (3 Bft)
07.08.2014 00:40 16,3 C 15,0 C 98 % 1013,4 hPa 0,0 l/m 0 min 2 min 0,0 UV-I 0 W/m 17,7 km/h (3 Bft)
07.08.2014 00:42 16,4 C 15,0 C 98 % 1013,4 hPa 0,0 l/m 0 min 0 min 0,0 UV-I 0 W/m 24,7 km/h (4 Bft)
07.08.2014 00:44 16,3 C 15,0 C 98 % 1013,4 hPa 0,0 l/m 0 min 0 min 0,0 UV-I 0 W/m 28,2 km/h (4 Bft)
07.08.2014 00:46 16,3 C 15,0 C 98 % 1013,3 hPa 0,0 l/m 0 min 0 min 0,0 UV-I 0 W/m 24,7 km/h (4 Bft)
07.08.2014 00:48 16,3 C 15,0 C 98 % 1013,4 hPa 0,0 l/m 0 min 0 min 0,0 UV-I 0 W/m 21,3 km/h (4 Bft)
07.08.2014 00:50 16,3 C 15,0 C 98 % 1013,4 hPa 0,0 l/m 0 min 0 min 0,0 UV-I 0 W/m 17,7 km/h (3 Bft)
07.08.2014 00:52 16,3 C 15,0 C 98 % 1013,4 hPa 0,0 l/m 0 min 0 min 0,0 UV-I 0 W/m 21,3 km/h (4 Bft)
07.08.2014 00:54 16,3 C 15,0 C 98 % 1013,3 hPa 0,0 l/m 0 min 0 min 0,0 UV-I 0 W/m 28,2 km/h (4 Bft)
07.08.2014 00:56 16,2 C 15,0 C 98 % 1013,3 hPa 0,0 l/m 0 min 0 min 0,0 UV-I 0 W/m 14,2 km/h (3 Bft)
07.08.2014 00:58 16,2 C 15,0 C 98 % 1013,3 hPa 0,0 l/m 0 min 0 min 0,0 UV-I 0 W/m 17,7 km/h (3 Bft)
07.08.2014 01:00 16,1 C 15,0 C 98 % 1013,3 hPa 0,0 l/m 0 min 0 min 0,0 UV-I 0 W/m 14,2 km/h (3 Bft)
07.08.2014 01:02 16,1 C 15,0 C 98 % 1013,2 hPa 0,0 l/m 0 min 0 min 0,0 UV-I 0 W/m 17,7 km/h (3 Bft)
07.08.2014 01:04 16,1 C 15,0 C 98 % 1013,2 hPa 0,0 l/m 0 min 0 min 0,0 UV-I 0 W/m 17,7 km/h (3 Bft)
07.08.2014 01:06 16,1 C 15,0 C 98 % 1013,2 hPa 0,0 l/m 0 min 0 min 0,0 UV-I 0 W/m 14,2 km/h (3 Bft)
07.08.2014 01:08 16,1 C 15,0 C 98 % 1013,3 hPa 0,0 l/m 0 min 0 min 0,0 UV-I 0 W/m 17,7 km/h (3 Bft)
07.08.2014 01:10 16,1 C 15,0 C 98 % 1013,3 hPa 0,0 l/m 0 min 0 min 0,0 UV-I 0 W/m 10,7 km/h (2 Bft)
07.08.2014 01:12 16,1 C 15,0 C 98 % 1013,3 hPa 0,0 l/m 0 min 0 min 0,0 UV-I 0 W/m 17,7 km/h (3 Bft)
07.08.2014 01:14 16,0 C 15,0 C 98 % 1013,3 hPa 0,0 l/m 0 min 0 min 0,0 UV-I 0 W/m 17,7 km/h (3 Bft)
07.08.2014 01:16 16,0 C 15,0 C 98 % 1013,3 hPa 0,0 l/m 0 min 0 min 0,0 UV-I 0 W/m 14,2 km/h (3 Bft)
07.08.2014 01:18 16,0 C 15,0 C 98 % 1013,3 hPa 0,0 l/m 0 min 0 min 0,0 UV-I 0 W/m 3,5 km/h (1 Bft)
07.08.2014 01:20 16,1 C 15,0 C 98 % 1013,3 hPa 0,0 l/m 0 min 0 min 0,0 UV-I 0 W/m 7,1 km/h (2 Bft)
07.08.2014 01:22 16,1 C 15,0 C 98 % 1013,3 hPa 0,0 l/m 0 min 0 min 0,0 UV-I 0 W/m 7,1 km/h (2 Bft)
07.08.2014 01:24 16,1 C 15,0 C 98 % 1013,4 hPa 0,0 l/m 0 min 0 min 0,0 UV-I 0 W/m 7,1 km/h (2 Bft)
07.08.2014 01:26 16,1 C 15,0 C 98 % 1013,4 hPa 0,0 l/m 0 min 0 min 0,0 UV-I 0 W/m 3,5 km/h (1 Bft)
07.08.2014 01:28 16,1 C 15,0 C 99 % 1013,3 hPa 0,0 l/m 0 min 0 min 0,0 UV-I 0 W/m 14,2 km/h (3 Bft)
07.08.2014 01:30 16,1 C 15,0 C 99 % 1013,4 hPa 0,0 l/m 0 min 0 min 0,0 UV-I 0 W/m 17,7 km/h (3 Bft)
07.08.2014 01:32 16,0 C 15,0 C 99 % 1013,3 hPa 0,0 l/m 0 min 0 min 0,0 UV-I 0 W/m 10,7 km/h (2 Bft)
07.08.2014 01:34 16,0 C 15,0 C 99 % 1013,3 hPa 0,0 l/m 0 min 0 min 0,0 UV-I 0 W/m 14,2 km/h (3 Bft)
07.08.2014 01:36 16,0 C 15,0 C 99 % 1013,2 hPa 0,0 l/m 0 min 0 min 0,0 UV-I 0 W/m 10,7 km/h (2 Bft)
07.08.2014 01:38 16,0 C 15,0 C 99 % 1013,3 hPa 0,0 l/m 0 min 0 min 0,0 UV-I 0 W/m 28,2 km/h (4 Bft)
07.08.2014 01:40 15,9 C 15,0 C 99 % 1013,3 hPa 0,0 l/m 0 min 0 min 0,0 UV-I 0 W/m 14,2 km/h (3 Bft)
07.08.2014 01:42 15,9 C 15,0 C 98 % 1013,2 hPa 0,0 l/m 0 min 0 min 0,0 UV-I 0 W/m 21,3 km/h (4 Bft)
07.08.2014 01:44 15,9 C 15,0 C 98 % 1013,2 hPa 0,0 l/m 0 min 0 min 0,0 UV-I 0 W/m 10,7 km/h (2 Bft)
07.08.2014 01:46 15,9 C 15,0 C 98 % 1013,2 hPa 0,0 l/m 0 min 0 min 0,0 UV-I 0 W/m 7,1 km/h (2 Bft)
07.08.2014 01:48 15,9 C 15,0 C 98 % 1013,2 hPa 0,0 l/m 0 min 0 min 0,0 UV-I 0 W/m 3,5 km/h (1 Bft)
07.08.2014 01:50 15,9 C 15,0 C 98 % 1013,2 hPa 0,0 l/m 0 min 0 min 0,0 UV-I 0 W/m 7,1 km/h (2 Bft)
07.08.2014 01:52 15,9 C 15,0 C 98 % 1013,3 hPa 0,0 l/m 0 min 0 min 0,0 UV-I 0 W/m 14,2 km/h (3 Bft)
07.08.2014 01:54 15,9 C 15,0 C 98 % 1013,2 hPa 0,0 l/m 0 min 0 min 0,0 UV-I 0 W/m 7,1 km/h (2 Bft)
07.08.2014 01:56 16,0 C 15,0 C 99 % 1013,2 hPa 0,0 l/m 0 min 0 min 0,0 UV-I 0 W/m 0,0 km/h (0 Bft)
07.08.2014 01:58 16,0 C 15,0 C 99 % 1013,2 hPa 0,0 l/m 0 min 0 min 0,0 UV-I 0 W/m 3,5 km/h (1 Bft)
07.08.2014 02:00 16,0 C 15,0 C 99 % 1013,2 hPa 0,0 l/m 0 min 0 min 0,0 UV-I 0 W/m 0,0 km/h (0 Bft)
07.08.2014 02:02 16,0 C 15,0 C 99 % 1013,2 hPa 0,0 l/m 0 min 0 min 0,0 UV-I 0 W/m 3,5 km/h (1 Bft)
07.08.2014 02:04 16,0 C 15,0 C 99 % 1013,2 hPa 0,0 l/m 0 min 0 min 0,0 UV-I 0 W/m 0,0 km/h (0 Bft)
07.08.2014 02:06 16,0 C 15,0 C 99 % 1013,2 hPa 0,0 l/m 0 min 0 min 0,0 UV-I 0 W/m 10,7 km/h (2 Bft)
07.08.2014 02:08 16,0 C 15,0 C 99 % 1013,3 hPa 0,0 l/m 0 min 0 min 0,0 UV-I 0 W/m 10,7 km/h (2 Bft)
07.08.2014 02:10 16,1 C 15,0 C 99 % 1013,1 hPa 0,0 l/m 0 min 0 min 0,0 UV-I 0 W/m 0,0 km/h (0 Bft)
07.08.2014 02:12 16,1 C 15,0 C 99 % 1013,1 hPa 0,0 l/m 0 min 0 min 0,0 UV-I 0 W/m 3,5 km/h (1 Bft)
07.08.2014 02:14 16,0 C 15,0 C 99 % 1013,1 hPa 0,0 l/m 0 min 0 min 0,0 UV-I 0 W/m 0,0 km/h (0 Bft)
07.08.2014 02:16 16,0 C 15,0 C 99 % 1013,1 hPa 0,0 l/m 0 min 0 min 0,0 UV-I 0 W/m 0,0 km/h (0 Bft)
07.08.2014 02:18 16,0 C 15,0 C 99 % 1013,1 hPa 0,0 l/m 0 min 0 min 0,0 UV-I 0 W/m 14,2 km/h (3 Bft)
07.08.2014 02:20 16,0 C 15,0 C 99 % 1013,1 hPa 0,0 l/m 0 min 0 min 0,0 UV-I 0 W/m 0,0 km/h (0 Bft)
07.08.2014 02:22 16,0 C 15,0 C 99 % 1013,1 hPa 0,0 l/m 0 min 0 min 0,0 UV-I 0 W/m 0,0 km/h (0 Bft)
07.08.2014 02:24 16,0 C 15,0 C 99 % 1013,1 hPa 0,0 l/m 0 min 0 min 0,0 UV-I 0 W/m 0,0 km/h (0 Bft)
07.08.2014 02:26 16,0 C 15,0 C 99 % 1013,1 hPa 0,0 l/m 0 min 0 min 0,0 UV-I 0 W/m 14,2 km/h (3 Bft)
07.08.2014 02:28 16,0 C 15,0 C 99 % 1013,1 hPa 0,0 l/m 0 min 0 min 0,0 UV-I 0 W/m 3,5 km/h (1 Bft)
07.08.2014 02:30 16,0 C 15,0 C 99 % 1013,1 hPa 0,0 l/m 0 min 0 min 0,0 UV-I 0 W/m 3,5 km/h (1 Bft)
07.08.2014 02:32 16,0 C 15,0 C 99 % 1013,1 hPa 0,0 l/m 0 min 0 min 0,0 UV-I 0 W/m 0,0 km/h (0 Bft)
07.08.2014 02:34 16,0 C 15,0 C 99 % 1013,1 hPa 0,0 l/m 0 min 0 min 0,0 UV-I 0 W/m 3,5 km/h (1 Bft)
07.08.2014 02:36 16,0 C 15,0 C 99 % 1013,1 hPa 0,0 l/m 0 min 0 min 0,0 UV-I 0 W/m 0,0 km/h (0 Bft)
07.08.2014 02:38 16,0 C 15,0 C 99 % 1013,1 hPa 0,0 l/m 0 min 0 min 0,0 UV-I 0 W/m 3,5 km/h (1 Bft)
07.08.2014 02:40 16,0 C 15,0 C 99 % 1013,1 hPa 0,0 l/m 0 min 0 min 0,0 UV-I 0 W/m 0,0 km/h (0 Bft)
07.08.2014 02:42 16,0 C 15,0 C 99 % 1013,1 hPa 0,0 l/m 0 min 0 min 0,0 UV-I 0 W/m 3,5 km/h (1 Bft)
07.08.2014 02:44 15,9 C 15,0 C 99 % 1013,1 hPa 0,0 l/m 0 min 0 min 0,0 UV-I 0 W/m 14,2 km/h (3 Bft)
07.08.2014 02:46 15,9 C 15,0 C 99 % 1013,0 hPa 0,0 l/m 0 min 0 min 0,0 UV-I 0 W/m 0,0 km/h (0 Bft)
07.08.2014 02:48 16,0 C 15,0 C 99 % 1013,1 hPa 0,0 l/m 0 min 0 min 0,0 UV-I 0 W/m 3,5 km/h (1 Bft)
07.08.2014 02:50 16,0 C 15,0 C 99 % 1013,0 hPa 0,0 l/m 0 min 0 min 0,0 UV-I 0 W/m 0,0 km/h (0 Bft)
07.08.2014 02:52 16,0 C 15,0 C 99 % 1013,0 hPa 0,0 l/m 0 min 0 min 0,0 UV-I 0 W/m 7,1 km/h (2 Bft)
07.08.2014 02:54 15,9 C 15,0 C 99 % 1012,9 hPa 0,0 l/m 0 min 0 min 0,0 UV-I 0 W/m 14,2 km/h (3 Bft)
07.08.2014 02:56 16,0 C 15,0 C 99 % 1012,9 hPa 0,0 l/m 0 min 0 min 0,0 UV-I 0 W/m 3,5 km/h (1 Bft)
07.08.2014 02:58 16,0 C 15,0 C 99 % 1013,0 hPa 0,0 l/m 0 min 0 min 0,0 UV-I 0 W/m 3,5 km/h (1 Bft)
07.08.2014 03:00 16,0 C 15,0 C 99 % 1012,9 hPa 0,0 l/m 0 min 0 min 0,0 UV-I 0 W/m 0,0 km/h (0 Bft)
07.08.2014 03:02 16,0 C 15,0 C 99 % 1012,9 hPa 0,0 l/m 0 min 0 min 0,0 UV-I 0 W/m 0,0 km/h (0 Bft)
07.08.2014 03:04 16,0 C 15,0 C 99 % 1012,9 hPa 0,0 l/m 0 min 0 min 0,0 UV-I 0 W/m 0,0 km/h (0 Bft)
07.08.2014 03:06 16,0 C 15,0 C 99 % 1012,9 hPa 0,0 l/m 0 min 0 min 0,0 UV-I 0 W/m 0,0 km/h (0 Bft)
07.08.2014 03:08 16,1 C 15,0 C 99 % 1012,9 hPa 0,0 l/m 0 min 0 min 0,0 UV-I 0 W/m 0,0 km/h (0 Bft)
07.08.2014 03:10 16,1 C 15,0 C 99 % 1012,9 hPa 0,0 l/m 0 min 0 min 0,0 UV-I 0 W/m 0,0 km/h (0 Bft)
07.08.2014 03:12 16,1 C 15,0 C 99 % 1012,8 hPa 0,0 l/m 0 min 0 min 0,0 UV-I 0 W/m 0,0 km/h (0 Bft)
07.08.2014 03:14 16,1 C 15,0 C 99 % 1012,9 hPa 0,0 l/m 0 min 0 min 0,0 UV-I 0 W/m 3,5 km/h (1 Bft)
07.08.2014 03:16 16,1 C 15,0 C 99 % 1012,8 hPa 0,0 l/m 0 min 0 min 0,0 UV-I 0 W/m 0,0 km/h (0 Bft)
07.08.2014 03:18 16,1 C 15,0 C 99 % 1012,8 hPa 0,0 l/m 0 min 0 min 0,0 UV-I 0 W/m 0,0 km/h (0 Bft)
07.08.2014 03:20 16,1 C 15,0 C 99 % 1012,8 hPa 0,0 l/m 0 min 0 min 0,0 UV-I 0 W/m 0,0 km/h (0 Bft)
07.08.2014 03:22 16,1 C 15,0 C 99 % 1012,9 hPa 0,0 l/m 0 min 0 min 0,0 UV-I 0 W/m 0,0 km/h (0 Bft)
07.08.2014 03:24 16,1 C 15,0 C 99 % 1012,8 hPa 0,0 l/m 0 min 0 min 0,0 UV-I 0 W/m 0,0 km/h (0 Bft)
07.08.2014 03:26 16,1 C 15,0 C 99 % 1012,9 hPa 0,0 l/m 0 min 0 min 0,0 UV-I 0 W/m 0,0 km/h (0 Bft)
07.08.2014 03:28 16,1 C 15,0 C 99 % 1012,9 hPa 0,0 l/m 0 min 0 min 0,0 UV-I 0 W/m 0,0 km/h (0 Bft)
07.08.2014 03:30 16,1 C 15,0 C 99 % 1012,9 hPa 0,0 l/m 0 min 0 min 0,0 UV-I 0 W/m 0,0 km/h (0 Bft)
07.08.2014 03:32 16,1 C 15,0 C 99 % 1012,8 hPa 0,0 l/m 0 min 0 min 0,0 UV-I 0 W/m 0,0 km/h (0 Bft)
07.08.2014 03:34 16,1 C 15,0 C 99 % 1012,9 hPa 0,0 l/m 0 min 0 min 0,0 UV-I 0 W/m 0,0 km/h (0 Bft)
07.08.2014 03:36 16,1 C 15,0 C 99 % 1012,9 hPa 0,0 l/m 0 min 0 min 0,0 UV-I 0 W/m 0,0 km/h (0 Bft)
07.08.2014 03:38 16,2 C 15,0 C 99 % 1012,9 hPa 0,0 l/m 0 min 0 min 0,0 UV-I 0 W/m 0,0 km/h (0 Bft)
07.08.2014 03:40 16,2 C 15,0 C 99 % 1012,9 hPa 0,0 l/m 0 min 0 min 0,0 UV-I 0 W/m 0,0 km/h (0 Bft)
07.08.2014 03:42 16,2 C 15,0 C 99 % 1012,9 hPa 0,0 l/m 0 min 0 min 0,0 UV-I 0 W/m 0,0 km/h (0 Bft)
07.08.2014 03:44 16,2 C 15,0 C 99 % 1012,9 hPa 0,0 l/m 0 min 0 min 0,0 UV-I 0 W/m 0,0 km/h (0 Bft)
07.08.2014 03:46 16,2 C 15,0 C 99 % 1012,9 hPa 0,0 l/m 0 min 0 min 0,0 UV-I 0 W/m 0,0 km/h (0 Bft)
07.08.2014 03:48 16,2 C 15,0 C 99 % 1012,8 hPa 0,0 l/m 0 min 0 min 0,0 UV-I 0 W/m 0,0 km/h (0 Bft)
07.08.2014 03:50 16,2 C 15,0 C 99 % 1012,8 hPa 0,0 l/m 0 min 0 min 0,0 UV-I 0 W/m 0,0 km/h (0 Bft)
07.08.2014 03:52 16,2 C 15,0 C 99 % 1012,8 hPa 0,0 l/m 0 min 0 min 0,0 UV-I 0 W/m 0,0 km/h (0 Bft)
07.08.2014 03:54 16,2 C 15,0 C 99 % 1012,8 hPa 0,0 l/m 0 min 0 min 0,0 UV-I 0 W/m 0,0 km/h (0 Bft)
07.08.2014 03:56 16,2 C 15,0 C 99 % 1012,9 hPa 0,0 l/m 0 min 0 min 0,0 UV-I 0 W/m 0,0 km/h (0 Bft)
07.08.2014 03:58 16,2 C 15,0 C 99 % 1012,8 hPa 0,0 l/m 0 min 0 min 0,0 UV-I 0 W/m 3,5 km/h (1 Bft)
07.08.2014 04:00 16,2 C 15,0 C 99 % 1012,9 hPa 0,0 l/m 0 min 0 min 0,0 UV-I 0 W/m 0,0 km/h (0 Bft)
07.08.2014 04:02 16,2 C 15,0 C 99 % 1012,9 hPa 0,0 l/m 0 min 0 min 0,0 UV-I 0 W/m 0,0 km/h (0 Bft)
07.08.2014 04:07 16,2 C 15,0 C 99 % 1012,9 hPa 0,0 l/m 0 min 0 min 0,0 UV-I 0 W/m 0,0 km/h (0 Bft)
07.08.2014 04:08 16,3 C 15,0 C 99 % 1012,9 hPa 0,0 l/m 0 min 0 min 0,0 UV-I 0 W/m 0,0 km/h (0 Bft)
07.08.2014 04:10 16,3 C 15,0 C 99 % 1012,9 hPa 0,0 l/m 0 min 0 min 0,0 UV-I 0 W/m 0,0 km/h (0 Bft)
07.08.2014 04:12 16,3 C 15,0 C 99 % 1013,0 hPa 0,0 l/m 0 min 0 min 0,0 UV-I 0 W/m 3,5 km/h (1 Bft)
07.08.2014 04:14 16,3 C 15,0 C 99 % 1013,0 hPa 0,0 l/m 0 min 0 min 0,0 UV-I 0 W/m 0,0 km/h (0 Bft)
07.08.2014 04:16 16,3 C 15,0 C 99 % 1013,0 hPa 0,0 l/m 0 min 0 min 0,0 UV-I 0 W/m 0,0 km/h (0 Bft)
07.08.2014 04:18 16,3 C 15,0 C 99 % 1013,0 hPa 0,0 l/m 0 min 0 min 0,0 UV-I 0 W/m 0,0 km/h (0 Bft)
07.08.2014 04:20 16,3 C 15,0 C 99 % 1013,0 hPa 0,0 l/m 0 min 0 min 0,0 UV-I 0 W/m 0,0 km/h (0 Bft)
07.08.2014 04:22 16,3 C 15,0 C 99 % 1012,9 hPa 0,0 l/m 0 min 0 min 0,0 UV-I 0 W/m 0,0 km/h (0 Bft)
07.08.2014 04:24 16,3 C 15,6 C 99 % 1012,9 hPa 0,0 l/m 0 min 0 min 0,0 UV-I 0 W/m 14,2 km/h (3 Bft)
07.08.2014 04:26 16,3 C 15,6 C 99 % 1012,9 hPa 0,0 l/m 0 min 0 min 0,0 UV-I 0 W/m 0,0 km/h (0 Bft)
07.08.2014 04:28 16,3 C 15,0 C 99 % 1012,9 hPa 0,0 l/m 0 min 0 min 0,0 UV-I 0 W/m 0,0 km/h (0 Bft)
07.08.2014 04:30 16,4 C 15,0 C 99 % 1012,9 hPa 0,0 l/m 0 min 0 min 0,0 UV-I 0 W/m 0,0 km/h (0 Bft)
07.08.2014 04:32 16,4 C 15,0 C 99 % 1012,9 hPa 0,0 l/m 0 min 0 min 0,0 UV-I 0 W/m 0,0 km/h (0 Bft)
07.08.2014 04:34 16,4 C 15,0 C 99 % 1012,9 hPa 0,0 l/m 0 min 0 min 0,0 UV-I 0 W/m 0,0 km/h (0 Bft)
07.08.2014 04:36 16,4 C 15,0 C 99 % 1012,9 hPa 0,0 l/m 0 min 0 min 0,0 UV-I 0 W/m 0,0 km/h (0 Bft)
07.08.2014 04:38 16,4 C 15,0 C 99 % 1012,9 hPa 0,0 l/m 0 min 0 min 0,0 UV-I 0 W/m 0,0 km/h (0 Bft)
07.08.2014 04:40 16,4 C 15,0 C 99 % 1012,8 hPa 0,0 l/m 0 min 0 min 0,0 UV-I 0 W/m 0,0 km/h (0 Bft)
07.08.2014 04:42 16,4 C 15,0 C 99 % 1012,8 hPa 0,0 l/m 0 min 0 min 0,0 UV-I 0 W/m 0,0 km/h (0 Bft)
07.08.2014 04:44 16,4 C 15,0 C 99 % 1012,9 hPa 0,0 l/m 0 min 0 min 0,0 UV-I 0 W/m 0,0 km/h (0 Bft)
07.08.2014 04:46 16,4 C 15,0 C 99 % 1012,8 hPa 0,0 l/m 0 min 0 min 0,0 UV-I 0 W/m 0,0 km/h (0 Bft)
07.08.2014 04:48 16,4 C 15,0 C 99 % 1012,9 hPa 0,0 l/m 0 min 0 min 0,0 UV-I 0 W/m 0,0 km/h (0 Bft)
07.08.2014 04:50 16,4 C 15,0 C 99 % 1012,9 hPa 0,0 l/m 0 min 0 min 0,0 UV-I 0 W/m 0,0 km/h (0 Bft)
07.08.2014 04:52 16,4 C 15,0 C 99 % 1012,9 hPa 0,0 l/m 0 min 0 min 0,0 UV-I 0 W/m 0,0 km/h (0 Bft)
07.08.2014 04:54 16,4 C 15,0 C 99 % 1012,9 hPa 0,0 l/m 0 min 0 min 0,0 UV-I 0 W/m 0,0 km/h (0 Bft)
07.08.2014 04:56 16,4 C 15,0 C 99 % 1012,9 hPa 0,0 l/m 0 min 0 min 0,0 UV-I 0 W/m 0,0 km/h (0 Bft)
07.08.2014 04:58 16,4 C 15,0 C 99 % 1012,9 hPa 0,0 l/m 0 min 0 min 0,0 UV-I 0 W/m 0,0 km/h (0 Bft)
07.08.2014 05:00 16,4 C 15,0 C 99 % 1012,9 hPa 0,0 l/m 0 min 0 min 0,0 UV-I 0 W/m 0,0 km/h (0 Bft)
07.08.2014 05:02 16,4 C 15,0 C 99 % 1012,9 hPa 0,0 l/m 0 min 0 min 0,0 UV-I 0 W/m 0,0 km/h (0 Bft)
07.08.2014 05:04 16,4 C 15,0 C 99 % 1012,9 hPa 0,0 l/m 0 min 0 min 0,0 UV-I 0 W/m 0,0 km/h (0 Bft)
07.08.2014 05:06 16,4 C 15,0 C 99 % 1013,0 hPa 0,0 l/m 0 min 0 min 0,0 UV-I 0 W/m 0,0 km/h (0 Bft)
07.08.2014 05:08 16,4 C 15,6 C 99 % 1012,9 hPa 0,0 l/m 0 min 0 min 0,0 UV-I 0 W/m 3,5 km/h (1 Bft)
07.08.2014 05:10 16,4 C 15,6 C 99 % 1012,9 hPa 0,0 l/m 0 min 0 min 0,0 UV-I 0 W/m 0,0 km/h (0 Bft)
07.08.2014 05:12 16,4 C 15,6 C 99 % 1012,9 hPa 0,0 l/m 0 min 0 min 0,0 UV-I 0 W/m 0,0 km/h (0 Bft)
07.08.2014 05:14 16,4 C 15,0 C 99 % 1012,9 hPa 0,0 l/m 0 min 0 min 0,0 UV-I 0 W/m 0,0 km/h (0 Bft)
07.08.2014 05:16 16,5 C 15,6 C 99 % 1012,9 hPa 0,0 l/m 0 min 0 min 0,0 UV-I 0 W/m 0,0 km/h (0 Bft)
07.08.2014 05:18 16,5 C 15,6 C 99 % 1012,9 hPa 0,0 l/m 0 min 0 min 0,0 UV-I 0 W/m 0,0 km/h (0 Bft)
07.08.2014 05:20 16,5 C 15,6 C 99 % 1012,8 hPa 0,0 l/m 0 min 0 min 0,0 UV-I 0 W/m 0,0 km/h (0 Bft)
07.08.2014 05:22 16,5 C 15,6 C 99 % 1012,9 hPa 0,0 l/m 0 min 0 min 0,0 UV-I 0 W/m 0,0 km/h (0 Bft)
07.08.2014 05:24 16,5 C 15,6 C 99 % 1012,9 hPa 0,0 l/m 0 min 0 min 0,0 UV-I 0 W/m 0,0 km/h (0 Bft)
07.08.2014 05:26 16,6 C 15,6 C 99 % 1012,9 hPa 0,0 l/m 0 min 0 min 0,0 UV-I 0 W/m 7,1 km/h (2 Bft)
07.08.2014 05:28 16,6 C 15,6 C 99 % 1012,9 hPa 0,0 l/m 0 min 0 min 0,0 UV-I 0 W/m 0,0 km/h (0 Bft)
07.08.2014 05:30 16,6 C 15,6 C 99 % 1012,9 hPa 0,0 l/m 0 min 0 min 0,0 UV-I 0 W/m 7,1 km/h (2 Bft)
07.08.2014 05:32 16,6 C 15,6 C 99 % 1012,9 hPa 0,0 l/m 0 min 0 min 0,0 UV-I 0 W/m 0,0 km/h (0 Bft)
07.08.2014 05:34 16,6 C 15,6 C 99 % 1012,8 hPa 0,0 l/m 0 min 0 min 0,0 UV-I 0 W/m 10,7 km/h (2 Bft)
07.08.2014 05:36 16,6 C 15,6 C 99 % 1012,8 hPa 0,0 l/m 0 min 0 min 0,0 UV-I 0 W/m 7,1 km/h (2 Bft)
07.08.2014 05:38 16,6 C 15,6 C 99 % 1012,8 hPa 0,0 l/m 0 min 0 min 0,0 UV-I 0 W/m 3,5 km/h (1 Bft)
07.08.2014 05:40 16,6 C 15,6 C 99 % 1012,9 hPa 0,0 l/m 0 min 0 min 0,0 UV-I 0 W/m 0,0 km/h (0 Bft)
07.08.2014 05:42 16,6 C 15,6 C 99 % 1012,8 hPa 0,0 l/m 0 min 0 min 0,0 UV-I 0 W/m 3,5 km/h (1 Bft)
07.08.2014 05:44 16,7 C 15,6 C 99 % 1012,8 hPa 0,0 l/m 0 min 0 min 0,0 UV-I 0 W/m 0,0 km/h (0 Bft)
07.08.2014 05:46 16,7 C 15,6 C 99 % 1012,8 hPa 0,0 l/m 0 min 0 min 0,0 UV-I 0 W/m 0,0 km/h (0 Bft)
07.08.2014 05:48 16,7 C 15,6 C 99 % 1012,8 hPa 0,0 l/m 0 min 0 min 0,0 UV-I 0 W/m 0,0 km/h (0 Bft)
07.08.2014 05:50 16,7 C 15,6 C 99 % 1012,8 hPa 0,0 l/m 0 min 0 min 0,0 UV-I 0 W/m 0,0 km/h (0 Bft)
07.08.2014 05:52 16,7 C 15,6 C 99 % 1012,8 hPa 0,0 l/m 0 min 0 min 0,0 UV-I 0 W/m 7,1 km/h (2 Bft)
07.08.2014 05:54 16,7 C 15,6 C 99 % 1012,8 hPa 0,0 l/m 0 min 0 min 0,0 UV-I 0 W/m 7,1 km/h (2 Bft)
07.08.2014 05:56 16,7 C 15,6 C 99 % 1012,8 hPa 0,0 l/m 0 min 0 min 0,0 UV-I 0 W/m 0,0 km/h (0 Bft)
07.08.2014 05:58 16,7 C 15,6 C 99 % 1012,9 hPa 0,0 l/m 0 min 0 min 0,0 UV-I 0 W/m 0,0 km/h (0 Bft)
07.08.2014 06:00 16,7 C 15,6 C 99 % 1012,9 hPa 0,0 l/m 0 min 0 min 0,0 UV-I 0 W/m 0,0 km/h (0 Bft)
07.08.2014 06:02 16,7 C 15,6 C 99 % 1012,9 hPa 0,0 l/m 0 min 0 min 0,0 UV-I 0 W/m 0,0 km/h (0 Bft)
07.08.2014 06:06 16,7 C 15,6 C 99 % 1012,9 hPa 0,0 l/m 0 min 0 min 0,0 UV-I 0 W/m 3,5 km/h (1 Bft)
07.08.2014 06:08 16,7 C 15,6 C 99 % 1012,9 hPa 0,0 l/m 0 min 0 min 0,0 UV-I 0 W/m 0,0 km/h (0 Bft)
07.08.2014 06:10 16,7 C 15,6 C 99 % 1012,9 hPa 0,0 l/m 0 min 0 min 0,0 UV-I 0 W/m 0,0 km/h (0 Bft)
07.08.2014 06:12 16,7 C 15,6 C 99 % 1012,9 hPa 0,0 l/m 0 min 0 min 0,0 UV-I 0 W/m 3,5 km/h (1 Bft)
07.08.2014 06:14 16,7 C 15,6 C 99 % 1013,0 hPa 0,0 l/m 0 min 0 min 0,0 UV-I 0 W/m 0,0 km/h (0 Bft)
07.08.2014 06:16 16,8 C 15,6 C 99 % 1013,0 hPa 0,0 l/m 0 min 0 min 0,0 UV-I 4 W/m 0,0 km/h (0 Bft)
07.08.2014 06:18 16,7 C 15,6 C 99 % 1013,0 hPa 0,0 l/m 0 min 0 min 0,0 UV-I 5 W/m 0,0 km/h (0 Bft)
07.08.2014 06:20 16,7 C 15,6 C 99 % 1013,1 hPa 0,0 l/m 0 min 0 min 0,0 UV-I 5 W/m 7,1 km/h (2 Bft)
07.08.2014 06:22 16,7 C 15,6 C 99 % 1013,1 hPa 0,0 l/m 0 min 0 min 0,0 UV-I 6 W/m 7,1 km/h (2 Bft)
07.08.2014 06:24 16,7 C 15,6 C 99 % 1013,0 hPa 0,0 l/m 0 min 0 min 0,0 UV-I 7 W/m 10,7 km/h (2 Bft)
07.08.2014 06:26 16,7 C 15,6 C 99 % 1013,0 hPa 0,0 l/m 0 min 0 min 0,0 UV-I 8 W/m 10,7 km/h (2 Bft)
07.08.2014 06:28 16,7 C 15,6 C 99 % 1013,0 hPa 0,0 l/m 0 min 0 min 0,0 UV-I 9 W/m 0,0 km/h (0 Bft)
07.08.2014 06:30 16,8 C 15,6 C 99 % 1013,1 hPa 0,0 l/m 0 min 0 min 0,0 UV-I 11 W/m 0,0 km/h (0 Bft)
07.08.2014 06:32 16,8 C 15,6 C 99 % 1013,1 hPa 0,0 l/m 0 min 0 min 0,0 UV-I 11 W/m 0,0 km/h (0 Bft)
07.08.2014 06:34 16,8 C 15,6 C 99 % 1013,0 hPa 0,0 l/m 0 min 0 min 0,0 UV-I 12 W/m 0,0 km/h (0 Bft)
07.08.2014 06:36 16,8 C 15,6 C 99 % 1013,1 hPa 0,0 l/m 0 min 0 min 0,0 UV-I 12 W/m 0,0 km/h (0 Bft)
07.08.2014 06:38 16,8 C 15,6 C 99 % 1013,1 hPa 0,0 l/m 0 min 0 min 0,0 UV-I 13 W/m 0,0 km/h (0 Bft)
07.08.2014 06:40 16,8 C 15,6 C 99 % 1013,1 hPa 0,0 l/m 0 min 0 min 0,0 UV-I 14 W/m 0,0 km/h (0 Bft)
07.08.2014 06:42 16,8 C 15,6 C 99 % 1013,1 hPa 0,0 l/m 0 min 0 min 0,0 UV-I 14 W/m 0,0 km/h (0 Bft)
07.08.2014 06:44 16,8 C 15,6 C 99 % 1013,1 hPa 0,0 l/m 0 min 0 min 0,0 UV-I 13 W/m 0,0 km/h (0 Bft)
07.08.2014 06:46 16,8 C 15,6 C 99 % 1013,2 hPa 0,0 l/m 0 min 0 min 0,0 UV-I 14 W/m 0,0 km/h (0 Bft)
07.08.2014 06:48 16,8 C 15,6 C 99 % 1013,2 hPa 0,0 l/m 0 min 0 min 0,0 UV-I 14 W/m 0,0 km/h (0 Bft)
07.08.2014 06:50 16,8 C 15,6 C 99 % 1013,2 hPa 0,0 l/m 0 min 0 min 0,0 UV-I 13 W/m 0,0 km/h (0 Bft)
07.08.2014 06:52 16,8 C 15,6 C 99 % 1013,3 hPa 0,0 l/m 0 min 0 min 0,0 UV-I 13 W/m 14,2 km/h (3 Bft)
07.08.2014 06:54 16,8 C 15,6 C 99 % 1013,2 hPa 0,0 l/m 0 min 0 min 0,0 UV-I 17 W/m 3,5 km/h (1 Bft)
07.08.2014 06:56 16,8 C 15,6 C 99 % 1013,3 hPa 0,0 l/m 0 min 0 min 0,0 UV-I 16 W/m 0,0 km/h (0 Bft)
07.08.2014 06:58 16,9 C 15,6 C 99 % 1013,3 hPa 0,0 l/m 0 min 0 min 0,0 UV-I 12 W/m 0,0 km/h (0 Bft)
07.08.2014 07:00 16,9 C 16,1 C 99 % 1013,3 hPa 0,0 l/m 0 min 0 min 0,0 UV-I 14 W/m 0,0 km/h (0 Bft)
07.08.2014 07:02 16,9 C 15,6 C 99 % 1013,3 hPa 0,0 l/m 0 min 0 min 0,0 UV-I 11 W/m 10,7 km/h (2 Bft)
07.08.2014 07:04 16,9 C 15,6 C 99 % 1013,3 hPa 0,0 l/m 0 min 0 min 0,0 UV-I 10 W/m 3,5 km/h (1 Bft)
07.08.2014 07:06 16,9 C 15,6 C 99 % 1013,3 hPa 0,0 l/m 0 min 0 min 0,0 UV-I 11 W/m 7,1 km/h (2 Bft)
07.08.2014 07:08 16,9 C 15,6 C 99 % 1013,3 hPa 0,0 l/m 0 min 0 min 0,0 UV-I 12 W/m 7,1 km/h (2 Bft)
07.08.2014 07:10 16,8 C 15,6 C 99 % 1013,3 hPa 0,0 l/m 0 min 0 min 0,0 UV-I 14 W/m 14,2 km/h (3 Bft)
07.08.2014 07:12 16,9 C 15,6 C 99 % 1013,3 hPa 0,0 l/m 0 min 0 min 0,0 UV-I 16 W/m 0,0 km/h (0 Bft)
07.08.2014 07:14 16,9 C 15,6 C 99 % 1013,3 hPa 0,0 l/m 0 min 0 min 0,0 UV-I 20 W/m 3,5 km/h (1 Bft)
07.08.2014 07:16 16,8 C 15,6 C 99 % 1013,3 hPa 0,0 l/m 0 min 0 min 0,0 UV-I 26 W/m 14,2 km/h (3 Bft)
07.08.2014 07:18 16,8 C 15,6 C 99 % 1013,4 hPa 0,0 l/m 0 min 0 min 0,0 UV-I 24 W/m 7,1 km/h (2 Bft)
07.08.2014 07:20 16,8 C 15,6 C 99 % 1013,3 hPa 0,0 l/m 0 min 0 min 0,0 UV-I 31 W/m 14,2 km/h (3 Bft)
07.08.2014 07:22 16,8 C 15,6 C 99 % 1013,3 hPa 0,0 l/m 0 min 0 min 0,0 UV-I 33 W/m 10,7 km/h (2 Bft)
07.08.2014 07:24 16,8 C 16,1 C 99 % 1013,3 hPa 0,0 l/m 0 min 0 min 0,0 UV-I 39 W/m 10,7 km/h (2 Bft)
07.08.2014 07:26 16,8 C 16,1 C 99 % 1013,3 hPa 0,0 l/m 0 min 0 min 0,0 UV-I 44 W/m 14,2 km/h (3 Bft)
07.08.2014 07:28 16,8 C 15,6 C 99 % 1013,3 hPa 0,0 l/m 0 min 0 min 0,0 UV-I 36 W/m 14,2 km/h (3 Bft)
07.08.2014 07:30 16,8 C 15,6 C 99 % 1013,3 hPa 0,0 l/m 0 min 0 min 0,0 UV-I 33 W/m 14,2 km/h (3 Bft)
07.08.2014 07:32 16,8 C 15,6 C 99 % 1013,3 hPa 0,0 l/m 0 min 0 min 0,0 UV-I 42 W/m 14,2 km/h (3 Bft)
07.08.2014 07:34 16,8 C 15,6 C 99 % 1013,3 hPa 0,0 l/m 0 min 0 min 0,0 UV-I 44 W/m 17,7 km/h (3 Bft)
07.08.2014 07:36 16,8 C 15,6 C 99 % 1013,3 hPa 0,0 l/m 0 min 0 min 0,0 UV-I 36 W/m 17,7 km/h (3 Bft)
07.08.2014 07:38 16,7 C 15,6 C 99 % 1013,3 hPa 0,0 l/m 0 min 0 min 0,0 UV-I 39 W/m 14,2 km/h (3 Bft)
07.08.2014 07:40 16,7 C 15,6 C 99 % 1013,3 hPa 0,0 l/m 0 min 0 min 0,0 UV-I 40 W/m 14,2 km/h (3 Bft)
07.08.2014 07:42 16,6 C 15,6 C 98 % 1013,3 hPa 0,0 l/m 0 min 0 min 0,0 UV-I 42 W/m 17,7 km/h (3 Bft)
07.08.2014 07:44 16,7 C 15,6 C 98 % 1013,4 hPa 0,0 l/m 0 min 0 min 0,0 UV-I 47 W/m 10,7 km/h (2 Bft)
07.08.2014 07:46 16,6 C 15,6 C 98 % 1013,4 hPa 0,0 l/m 0 min 0 min 0,0 UV-I 54 W/m 21,3 km/h (4 Bft)
07.08.2014 07:48 16,6 C 15,6 C 98 % 1013,3 hPa 0,0 l/m 0 min 0 min 0,0 UV-I 61 W/m 28,2 km/h (4 Bft)
07.08.2014 07:50 16,6 C 15,6 C 98 % 1013,4 hPa 0,0 l/m 0 min 0 min 0,0 UV-I 65 W/m 21,3 km/h (4 Bft)
07.08.2014 07:52 16,6 C 15,6 C 98 % 1013,4 hPa 0,0 l/m 0 min 0 min 0,0 UV-I 63 W/m 31,7 km/h (5 Bft)
07.08.2014 07:54 16,6 C 15,6 C 98 % 1013,4 hPa 0,0 l/m 0 min 0 min 0,0 UV-I 66 W/m 17,7 km/h (3 Bft)
07.08.2014 07:56 16,6 C 15,6 C 98 % 1013,4 hPa 0,0 l/m 0 min 0 min 0,0 UV-I 65 W/m 21,3 km/h (4 Bft)
07.08.2014 07:58 16,7 C 15,6 C 98 % 1013,5 hPa 0,0 l/m 0 min 0 min 0,0 UV-I 62 W/m 17,7 km/h (3 Bft)
07.08.2014 08:00 16,7 C 15,6 C 98 % 1013,5 hPa 0,0 l/m 0 min 0 min 0,0 UV-I 58 W/m 21,3 km/h (4 Bft)
07.08.2014 08:02 16,7 C 15,6 C 98 % 1013,5 hPa 0,0 l/m 0 min 0 min 0,0 UV-I 61 W/m 21,3 km/h (4 Bft)
07.08.2014 08:04 16,7 C 15,6 C 98 % 1013,5 hPa 0,0 l/m 0 min 0 min 0,0 UV-I 63 W/m 21,3 km/h (4 Bft)
07.08.2014 08:06 16,7 C 15,6 C 98 % 1013,5 hPa 0,0 l/m 0 min 0 min 0,0 UV-I 59 W/m 14,2 km/h (3 Bft)
07.08.2014 08:08 16,7 C 15,6 C 98 % 1013,5 hPa 0,0 l/m 0 min 0 min 0,0 UV-I 39 W/m 17,7 km/h (3 Bft)
07.08.2014 08:10 16,7 C 15,6 C 98 % 1013,7 hPa 0,0 l/m 0 min 0 min 0,0 UV-I 32 W/m 24,7 km/h (4 Bft)
07.08.2014 08:12 16,7 C 15,6 C 97 % 1013,5 hPa 0,0 l/m 0 min 0 min 0,0 UV-I 36 W/m 24,7 km/h (4 Bft)
07.08.2014 08:14 16,6 C 15,6 C 97 % 1013,6 hPa 0,0 l/m 0 min 0 min 0,0 UV-I 46 W/m 28,2 km/h (4 Bft)
07.08.2014 08:16 16,6 C 15,6 C 97 % 1013,6 hPa 0,0 l/m 0 min 0 min 0,0 UV-I 48 W/m 14,2 km/h (3 Bft)
07.08.2014 08:18 16,6 C 15,6 C 97 % 1013,6 hPa 0,0 l/m 0 min 0 min 0,0 UV-I 62 W/m 0,0 km/h (0 Bft)
07.08.2014 08:20 16,6 C 15,6 C 97 % 1013,5 hPa 0,0 l/m 0 min 0 min 0,0 UV-I 76 W/m 0,0 km/h (0 Bft)
07.08.2014 08:22 16,7 C 15,6 C 97 % 1013,6 hPa 0,0 l/m 0 min 0 min 0,0 UV-I 96 W/m 0,0 km/h (0 Bft)
07.08.2014 08:24 16,6 C 15,6 C 97 % 1013,6 hPa 0,0 l/m 0 min 0 min 0,0 UV-I 101 W/m 14,2 km/h (3 Bft)
07.08.2014 08:26 16,6 C 15,6 C 97 % 1013,6 hPa 0,0 l/m 0 min 0 min 0,0 UV-I 108 W/m 7,1 km/h (2 Bft)
07.08.2014 08:28 16,6 C 15,6 C 97 % 1013,6 hPa 0,0 l/m 2 min 0 min 0,0 UV-I 181 W/m 0,0 km/h (0 Bft)
07.08.2014 08:30 16,6 C 15,6 C 97 % 1013,7 hPa 0,0 l/m 0 min 0 min 0,0 UV-I 166 W/m 0,0 km/h (0 Bft)
07.08.2014 08:32 16,7 C 15,6 C 97 % 1013,6 hPa 0,0 l/m 0 min 0 min 0,0 UV-I 161 W/m 0,0 km/h (0 Bft)
07.08.2014 08:34 16,7 C 15,6 C 97 % 1013,7 hPa 0,0 l/m 2 min 0 min 0,0 UV-I 216 W/m 0,0 km/h (0 Bft)
07.08.2014 08:36 16,8 C 15,6 C 96 % 1013,7 hPa 0,0 l/m 2 min 0 min 0,0 UV-I 274 W/m 0,0 km/h (0 Bft)
07.08.2014 08:38 16,9 C 16,1 C 96 % 1013,7 hPa 0,0 l/m 2 min 0 min 0,0 UV-I 267 W/m 0,0 km/h (0 Bft)
07.08.2014 08:40 17,0 C 16,1 C 97 % 1013,7 hPa 0,0 l/m 2 min 0 min 0,0 UV-I 297 W/m 0,0 km/h (0 Bft)
07.08.2014 08:42 17,1 C 16,1 C 97 % 1013,7 hPa 0,0 l/m 2 min 0 min 0,0 UV-I 300 W/m 10,7 km/h (2 Bft)
07.08.2014 08:44 17,2 C 16,1 C 96 % 1013,7 hPa 0,0 l/m 2 min 0 min 0,0 UV-I 283 W/m 17,7 km/h (3 Bft)
07.08.2014 08:46 17,1 C 16,1 C 96 % 1013,7 hPa 0,0 l/m 2 min 0 min 0,0 UV-I 237 W/m 10,7 km/h (2 Bft)
07.08.2014 08:48 17,3 C 16,1 C 96 % 1013,7 hPa 0,0 l/m 2 min 0 min 0,0 UV-I 209 W/m 14,2 km/h (3 Bft)
07.08.2014 08:50 17,4 C 16,7 C 96 % 1013,7 hPa 0,0 l/m 0 min 0 min 0,0 UV-I 191 W/m 17,7 km/h (3 Bft)
07.08.2014 08:52 17,4 C 16,7 C 96 % 1013,7 hPa 0,0 l/m 0 min 0 min 0,0 UV-I 179 W/m 21,3 km/h (4 Bft)
07.08.2014 08:54 17,4 C 16,7 C 95 % 1013,7 hPa 0,0 l/m 0 min 0 min 0,0 UV-I 157 W/m 14,2 km/h (3 Bft)
07.08.2014 08:56 17,6 C 16,7 C 95 % 1013,8 hPa 0,0 l/m 0 min 0 min 0,0 UV-I 126 W/m 0,0 km/h (0 Bft)
07.08.2014 08:58 17,6 C 16,7 C 96 % 1013,7 hPa 0,0 l/m 0 min 0 min 0,0 UV-I 141 W/m 17,7 km/h (3 Bft)
07.08.2014 09:00 17,6 C 16,7 C 95 % 1013,7 hPa 0,0 l/m 0 min 0 min 0,0 UV-I 137 W/m 24,7 km/h (4 Bft)
07.08.2014 09:02 17,5 C 16,7 C 95 % 1013,7 hPa 0,0 l/m 0 min 0 min 0,0 UV-I 151 W/m 24,7 km/h (4 Bft)
07.08.2014 09:04 17,6 C 16,7 C 95 % 1013,7 hPa 0,0 l/m 0 min 0 min 0,0 UV-I 180 W/m 14,2 km/h (3 Bft)
07.08.2014 09:06 17,6 C 16,7 C 95 % 1013,7 hPa 0,0 l/m 0 min 0 min 0,0 UV-I 202 W/m 3,5 km/h (1 Bft)
07.08.2014 09:08 17,7 C 16,7 C 95 % 1013,7 hPa 0,0 l/m 2 min 0 min 0,0 UV-I 218 W/m 10,7 km/h (2 Bft)
07.08.2014 09:10 17,8 C 17,2 C 95 % 1013,7 hPa 0,0 l/m 2 min 0 min 0,0 UV-I 237 W/m 17,7 km/h (3 Bft)
07.08.2014 09:12 17,9 C 17,2 C 95 % 1013,8 hPa 0,0 l/m 0 min 0 min 0,0 UV-I 191 W/m 21,3 km/h (4 Bft)
07.08.2014 09:14 17,9 C 17,2 C 95 % 1013,8 hPa 0,0 l/m 0 min 0 min 0,0 UV-I 182 W/m 17,7 km/h (3 Bft)
07.08.2014 09:16 17,9 C 17,2 C 95 % 1013,7 hPa 0,0 l/m 0 min 0 min 0,0 UV-I 199 W/m 10,7 km/h (2 Bft)
07.08.2014 09:18 17,9 C 17,2 C 94 % 1013,9 hPa 0,0 l/m 0 min 0 min 0,0 UV-I 195 W/m 7,1 km/h (2 Bft)
07.08.2014 09:20 18,0 C 17,2 C 94 % 1013,8 hPa 0,0 l/m 0 min 0 min 0,0 UV-I 202 W/m 24,7 km/h (4 Bft)
07.08.2014 09:22 17,9 C 16,7 C 94 % 1013,8 hPa 0,0 l/m 0 min 0 min 0,0 UV-I 160 W/m 21,3 km/h (4 Bft)
07.08.2014 09:24 17,9 C 16,7 C 94 % 1013,8 hPa 0,0 l/m 0 min 0 min 0,0 UV-I 164 W/m 14,2 km/h (3 Bft)
07.08.2014 09:26 17,9 C 16,7 C 94 % 1013,8 hPa 0,0 l/m 0 min 0 min 0,4 UV-I 191 W/m 21,3 km/h (4 Bft)
07.08.2014 09:28 17,9 C 16,7 C 93 % 1013,9 hPa 0,0 l/m 0 min 0 min 0,0 UV-I 183 W/m 21,3 km/h (4 Bft)
07.08.2014 09:30 17,9 C 16,7 C 93 % 1014,0 hPa 0,0 l/m 0 min 0 min 0,0 UV-I 152 W/m 17,7 km/h (3 Bft)
07.08.2014 09:32 17,9 C 16,7 C 93 % 1014,0 hPa 0,0 l/m 0 min 0 min 0,0 UV-I 135 W/m 10,7 km/h (2 Bft)
07.08.2014 09:34 17,9 C 16,7 C 93 % 1014,0 hPa 0,0 l/m 0 min 0 min 0,1 UV-I 122 W/m 21,3 km/h (4 Bft)
07.08.2014 09:36 17,8 C 16,7 C 93 % 1014,0 hPa 0,0 l/m 0 min 0 min 0,5 UV-I 113 W/m 21,3 km/h (4 Bft)
07.08.2014 09:38 17,8 C 16,7 C 93 % 1013,9 hPa 0,0 l/m 0 min 0 min 0,9 UV-I 169 W/m 17,7 km/h (3 Bft)
07.08.2014 09:40 17,9 C 17,2 C 93 % 1014,0 hPa 0,0 l/m 2 min 0 min 1,1 UV-I 410 W/m 17,7 km/h (3 Bft)
07.08.2014 09:42 18,1 C 17,2 C 93 % 1014,0 hPa 0,0 l/m 2 min 0 min 1,3 UV-I 503 W/m 17,7 km/h (3 Bft)
07.08.2014 09:44 18,3 C 17,2 C 92 % 1014,0 hPa 0,0 l/m 2 min 0 min 1,3 UV-I 516 W/m 28,2 km/h (4 Bft)
07.08.2014 09:46 18,4 C 17,2 C 92 % 1014,0 hPa 0,0 l/m 2 min 0 min 1,3 UV-I 516 W/m 28,2 km/h (4 Bft)
07.08.2014 09:48 18,6 C 17,8 C 91 % 1014,0 hPa 0,0 l/m 2 min 0 min 1,4 UV-I 535 W/m 17,7 km/h (3 Bft)
07.08.2014 09:50 18,9 C 18,9 C 91 % 1013,9 hPa 0,0 l/m 2 min 0 min 1,4 UV-I 554 W/m 24,7 km/h (4 Bft)
07.08.2014 09:52 19,1 C 19,4 C 90 % 1013,9 hPa 0,0 l/m 2 min 0 min 1,5 UV-I 577 W/m 24,7 km/h (4 Bft)
07.08.2014 09:54 19,2 C 19,4 C 90 % 1013,9 hPa 0,0 l/m 2 min 0 min 1,3 UV-I 577 W/m 28,2 km/h (4 Bft)
07.08.2014 09:56 19,2 C 18,9 C 89 % 1013,9 hPa 0,0 l/m 0 min 0 min 1,0 UV-I 191 W/m 24,7 km/h (4 Bft)
07.08.2014 09:58 19,1 C 18,3 C 88 % 1013,9 hPa 0,0 l/m 0 min 0 min 1,1 UV-I 210 W/m 28,2 km/h (4 Bft)
07.08.2014 10:00 18,9 C 17,8 C 88 % 1014,0 hPa 0,0 l/m 2 min 0 min 1,4 UV-I 323 W/m 21,3 km/h (4 Bft)
07.08.2014 10:02 18,8 C 17,8 C 88 % 1014,1 hPa 0,0 l/m 0 min 0 min 1,2 UV-I 230 W/m 24,7 km/h (4 Bft)
07.08.2014 10:04 18,8 C 17,8 C 88 % 1014,1 hPa 0,0 l/m 0 min 0 min 1,0 UV-I 207 W/m 17,7 km/h (3 Bft)
07.08.2014 10:06 18,7 C 17,2 C 88 % 1014,1 hPa 0,0 l/m 0 min 0 min 1,2 UV-I 194 W/m 17,7 km/h (3 Bft)
07.08.2014 10:08 18,7 C 17,8 C 89 % 1014,1 hPa 0,0 l/m 0 min 0 min 1,3 UV-I 185 W/m 17,7 km/h (3 Bft)
07.08.2014 10:10 18,7 C 17,8 C 89 % 1014,1 hPa 0,0 l/m 0 min 0 min 1,2 UV-I 208 W/m 21,3 km/h (4 Bft)
07.08.2014 10:12 18,7 C 17,8 C 89 % 1014,2 hPa 0,0 l/m 0 min 0 min 1,2 UV-I 210 W/m 21,3 km/h (4 Bft)
07.08.2014 10:14 18,7 C 18,9 C 89 % 1014,1 hPa 0,0 l/m 0 min 0 min 1,5 UV-I 225 W/m 24,7 km/h (4 Bft)
07.08.2014 10:16 18,8 C 20,0 C 90 % 1014,1 hPa 0,0 l/m 2 min 0 min 1,8 UV-I 457 W/m 17,7 km/h (3 Bft)
07.08.2014 10:18 19,1 C 21,1 C 89 % 1014,1 hPa 0,0 l/m 2 min 0 min 1,9 UV-I 539 W/m 28,2 km/h (4 Bft)
07.08.2014 10:20 19,2 C 21,1 C 89 % 1014,2 hPa 0,0 l/m 2 min 0 min 1,8 UV-I 558 W/m 31,7 km/h (5 Bft)
07.08.2014 10:22 19,3 C 20,6 C 88 % 1014,2 hPa 0,0 l/m 2 min 0 min 1,6 UV-I 351 W/m 14,2 km/h (3 Bft)
07.08.2014 10:24 19,4 C 21,1 C 88 % 1014,2 hPa 0,0 l/m 2 min 0 min 2,0 UV-I 558 W/m 24,7 km/h (4 Bft)
07.08.2014 10:26 19,6 C 21,1 C 88 % 1014,1 hPa 0,0 l/m 2 min 0 min 2,1 UV-I 598 W/m 17,7 km/h (3 Bft)
07.08.2014 10:28 19,7 C 21,7 C 87 % 1014,1 hPa 0,0 l/m 2 min 0 min 2,2 UV-I 589 W/m 21,3 km/h (4 Bft)
07.08.2014 10:30 19,9 C 22,2 C 87 % 1014,2 hPa 0,0 l/m 2 min 0 min 2,2 UV-I 601 W/m 17,7 km/h (3 Bft)
07.08.2014 10:32 20,0 C 22,2 C 86 % 1014,2 hPa 0,0 l/m 2 min 0 min 2,2 UV-I 584 W/m 17,7 km/h (3 Bft)
07.08.2014 10:34 20,2 C 22,2 C 86 % 1014,1 hPa 0,0 l/m 2 min 0 min 2,2 UV-I 554 W/m 21,3 km/h (4 Bft)
07.08.2014 10:36 20,3 C 22,2 C 86 % 1014,2 hPa 0,0 l/m 2 min 0 min 2,3 UV-I 583 W/m 28,2 km/h (4 Bft)
07.08.2014 10:38 20,3 C 22,2 C 85 % 1014,2 hPa 0,0 l/m 2 min 0 min 2,3 UV-I 602 W/m 21,3 km/h (4 Bft)
07.08.2014 10:40 20,3 C 21,7 C 85 % 1014,2 hPa 0,0 l/m 2 min 0 min 2,2 UV-I 581 W/m 28,2 km/h (4 Bft)
07.08.2014 10:42 20,3 C 21,1 C 84 % 1014,2 hPa 0,0 l/m 2 min 0 min 2,4 UV-I 604 W/m 28,2 km/h (4 Bft)
07.08.2014 10:44 20,4 C 21,1 C 84 % 1014,2 hPa 0,0 l/m 2 min 0 min 2,5 UV-I 654 W/m 17,7 km/h (3 Bft)
07.08.2014 10:46 20,4 C 21,1 C 84 % 1014,2 hPa 0,0 l/m 2 min 0 min 2,4 UV-I 624 W/m 24,7 km/h (4 Bft)
07.08.2014 10:48 20,6 C 20,6 C 84 % 1014,2 hPa 0,0 l/m 2 min 0 min 2,2 UV-I 538 W/m 21,3 km/h (4 Bft)
07.08.2014 10:50 20,8 C 21,1 C 84 % 1014,2 hPa 0,0 l/m 2 min 0 min 2,3 UV-I 540 W/m 17,7 km/h (3 Bft)
07.08.2014 10:52 20,9 C 21,1 C 84 % 1014,2 hPa 0,0 l/m 2 min 0 min 2,3 UV-I 550 W/m 17,7 km/h (3 Bft)
07.08.2014 10:54 20,9 C 21,1 C 84 % 1014,2 hPa 0,0 l/m 2 min 0 min 2,2 UV-I 497 W/m 17,7 km/h (3 Bft)
07.08.2014 10:56 20,8 C 20,6 C 84 % 1014,2 hPa 0,0 l/m 2 min 0 min 1,8 UV-I 390 W/m 14,2 km/h (3 Bft)
07.08.2014 10:58 20,9 C 21,7 C 85 % 1014,2 hPa 0,0 l/m 2 min 0 min 2,6 UV-I 520 W/m 17,7 km/h (3 Bft)
07.08.2014 11:00 20,9 C 21,7 C 83 % 1014,2 hPa 0,0 l/m 2 min 0 min 2,6 UV-I 728 W/m 17,7 km/h (3 Bft)
07.08.2014 11:02 21,1 C 22,2 C 83 % 1014,2 hPa 0,0 l/m 2 min 0 min 2,8 UV-I 713 W/m 17,7 km/h (3 Bft)
07.08.2014 11:04 21,0 C 21,7 C 82 % 1014,2 hPa 0,0 l/m 2 min 0 min 2,4 UV-I 523 W/m 21,3 km/h (4 Bft)
07.08.2014 11:06 20,9 C 22,2 C 83 % 1014,3 hPa 0,0 l/m 2 min 0 min 2,9 UV-I 520 W/m 14,2 km/h (3 Bft)
07.08.2014 11:08 21,0 C 22,8 C 83 % 1014,4 hPa 0,0 l/m 2 min 0 min 2,6 UV-I 580 W/m 17,7 km/h (3 Bft)
07.08.2014 11:10 20,9 C 21,7 C 82 % 1014,3 hPa 0,0 l/m 2 min 0 min 1,9 UV-I 432 W/m 21,3 km/h (4 Bft)
07.08.2014 11:12 20,9 C 21,1 C 83 % 1014,3 hPa 0,0 l/m 0 min 0 min 1,9 UV-I 208 W/m 24,7 km/h (4 Bft)
07.08.2014 11:14 20,8 C 21,1 C 83 % 1014,3 hPa 0,0 l/m 2 min 0 min 2,8 UV-I 513 W/m 21,3 km/h (4 Bft)
07.08.2014 11:16 20,9 C 21,1 C 82 % 1014,3 hPa 0,0 l/m 2 min 0 min 3,0 UV-I 675 W/m 0,0 km/h (0 Bft)
07.08.2014 11:18 21,2 C 21,1 C 82 % 1014,3 hPa 0,0 l/m 2 min 0 min 3,1 UV-I 690 W/m 21,3 km/h (4 Bft)
07.08.2014 11:20 21,3 C 21,1 C 81 % 1014,3 hPa 0,0 l/m 2 min 0 min 3,2 UV-I 695 W/m 17,7 km/h (3 Bft)
07.08.2014 11:22 21,4 C 21,1 C 81 % 1014,3 hPa 0,0 l/m 2 min 0 min 3,1 UV-I 704 W/m 28,2 km/h (4 Bft)
07.08.2014 11:24 21,3 C 20,6 C 80 % 1014,3 hPa 0,0 l/m 2 min 0 min 2,8 UV-I 694 W/m 17,7 km/h (3 Bft)
07.08.2014 11:26 21,2 C 20,6 C 80 % 1014,3 hPa 0,0 l/m 2 min 0 min 3,0 UV-I 691 W/m 21,3 km/h (4 Bft)
07.08.2014 11:28 21,2 C 20,6 C 80 % 1014,3 hPa 0,0 l/m 2 min 0 min 3,2 UV-I 704 W/m 17,7 km/h (3 Bft)
07.08.2014 11:30 21,3 C 21,1 C 81 % 1014,3 hPa 0,0 l/m 2 min 0 min 3,4 UV-I 733 W/m 21,3 km/h (4 Bft)
07.08.2014 11:32 21,5 C 21,1 C 79 % 1014,3 hPa 0,0 l/m 2 min 0 min 3,4 UV-I 719 W/m 17,7 km/h (3 Bft)
07.08.2014 11:34 21,7 C 21,1 C 80 % 1014,3 hPa 0,0 l/m 2 min 0 min 3,3 UV-I 694 W/m 21,3 km/h (4 Bft)
07.08.2014 11:36 21,9 C 21,7 C 79 % 1014,3 hPa 0,0 l/m 2 min 0 min 3,2 UV-I 717 W/m 28,2 km/h (4 Bft)
07.08.2014 11:38 21,8 C 21,7 C 78 % 1014,3 hPa 0,0 l/m 2 min 0 min 3,2 UV-I 659 W/m 14,2 km/h (3 Bft)
07.08.2014 11:40 21,8 C 21,7 C 79 % 1014,3 hPa 0,0 l/m 2 min 0 min 3,3 UV-I 607 W/m 17,7 km/h (3 Bft)
07.08.2014 11:42 21,7 C 22,2 C 77 % 1014,3 hPa 0,0 l/m 2 min 0 min 3,4 UV-I 709 W/m 21,3 km/h (4 Bft)
07.08.2014 11:44 21,8 C 22,2 C 79 % 1014,3 hPa 0,0 l/m 2 min 0 min 3,3 UV-I 686 W/m 21,3 km/h (4 Bft)
07.08.2014 11:46 21,9 C 22,2 C 79 % 1014,3 hPa 0,0 l/m 2 min 0 min 2,9 UV-I 557 W/m 10,7 km/h (2 Bft)
07.08.2014 11:48 21,9 C 22,2 C 80 % 1014,3 hPa 0,0 l/m 2 min 0 min 2,5 UV-I 436 W/m 21,3 km/h (4 Bft)
07.08.2014 11:50 22,0 C 22,2 C 80 % 1014,3 hPa 0,0 l/m 2 min 0 min 2,5 UV-I 417 W/m 0,0 km/h (0 Bft)
07.08.2014 11:52 21,9 C 21,7 C 80 % 1014,3 hPa 0,0 l/m 2 min 0 min 2,4 UV-I 440 W/m 17,7 km/h (3 Bft)
07.08.2014 11:54 21,8 C 21,7 C 80 % 1014,4 hPa 0,0 l/m 2 min 0 min 2,7 UV-I 386 W/m 17,7 km/h (3 Bft)
07.08.2014 11:56 21,9 C 22,2 C 80 % 1014,4 hPa 0,0 l/m 2 min 0 min 3,3 UV-I 524 W/m 10,7 km/h (2 Bft)
07.08.2014 11:58 22,1 C 22,2 C 79 % 1014,4 hPa 0,0 l/m 2 min 0 min 3,3 UV-I 592 W/m 21,3 km/h (4 Bft)
07.08.2014 12:00 22,2 C 22,2 C 79 % 1014,4 hPa 0,0 l/m 2 min 0 min 2,9 UV-I 470 W/m 17,7 km/h (3 Bft)
07.08.2014 12:02 21,9 C 21,7 C 78 % 1014,4 hPa 0,0 l/m 2 min 0 min 2,9 UV-I 531 W/m 0,0 km/h (0 Bft)
07.08.2014 12:05 21,6 C 21,7 C 79 % 1014,4 hPa 0,0 l/m 0 min 0 min 2,5 UV-I 334 W/m 0,0 km/h (0 Bft)
07.08.2014 12:06 21,6 C 21,7 C 79 % 1014,4 hPa 0,0 l/m 0 min 0 min 2,6 UV-I 338 W/m 0,0 km/h (0 Bft)
07.08.2014 12:08 21,6 C 21,7 C 80 % 1014,4 hPa 0,0 l/m 2 min 0 min 3,0 UV-I 435 W/m 28,2 km/h (4 Bft)
07.08.2014 12:10 21,7 C 21,7 C 80 % 1014,4 hPa 0,0 l/m 0 min 0 min 2,8 UV-I 342 W/m 17,7 km/h (3 Bft)
07.08.2014 12:12 21,9 C 22,2 C 81 % 1014,4 hPa 0,0 l/m 2 min 0 min 3,3 UV-I 544 W/m 17,7 km/h (3 Bft)
07.08.2014 12:14 22,1 C 22,8 C 79 % 1014,4 hPa 0,0 l/m 2 min 0 min 3,5 UV-I 693 W/m 14,2 km/h (3 Bft)
07.08.2014 12:16 22,2 C 23,3 C 79 % 1014,3 hPa 0,0 l/m 2 min 0 min 3,4 UV-I 591 W/m 17,7 km/h (3 Bft)
07.08.2014 12:18 22,4 C 22,8 C 79 % 1014,3 hPa 0,0 l/m 2 min 0 min 2,9 UV-I 450 W/m 21,3 km/h (4 Bft)
07.08.2014 12:20 22,5 C 23,3 C 77 % 1014,3 hPa 0,0 l/m 2 min 0 min 3,5 UV-I 642 W/m 21,3 km/h (4 Bft)
07.08.2014 12:22 22,6 C 23,3 C 78 % 1014,3 hPa 0,0 l/m 2 min 0 min 3,6 UV-I 650 W/m 14,2 km/h (3 Bft)
07.08.2014 12:24 22,6 C 22,8 C 79 % 1014,3 hPa 0,0 l/m 2 min 0 min 2,6 UV-I 445 W/m 14,2 km/h (3 Bft)
07.08.2014 12:26 22,5 C 22,2 C 78 % 1014,3 hPa 0,0 l/m 0 min 0 min 2,1 UV-I 278 W/m 17,7 km/h (3 Bft)
07.08.2014 12:28 22,2 C 21,7 C 78 % 1014,3 hPa 0,0 l/m 0 min 0 min 2,1 UV-I 296 W/m 21,3 km/h (4 Bft)
07.08.2014 12:30 22,1 C 21,7 C 78 % 1014,4 hPa 0,0 l/m 0 min 0 min 2,4 UV-I 330 W/m 17,7 km/h (3 Bft)
07.08.2014 12:32 22,1 C 21,7 C 78 % 1014,4 hPa 0,0 l/m 0 min 0 min 2,4 UV-I 338 W/m 21,3 km/h (4 Bft)
07.08.2014 12:34 22,0 C 21,7 C 78 % 1014,3 hPa 0,0 l/m 2 min 0 min 2,9 UV-I 398 W/m 24,7 km/h (4 Bft)
07.08.2014 12:36 22,2 C 22,8 C 78 % 1014,3 hPa 0,0 l/m 2 min 0 min 3,4 UV-I 736 W/m 21,3 km/h (4 Bft)
07.08.2014 12:38 22,1 C 23,3 C 76 % 1014,3 hPa 0,0 l/m 2 min 0 min 3,4 UV-I 852 W/m 10,7 km/h (2 Bft)
07.08.2014 12:40 22,4 C 24,4 C 78 % 1014,4 hPa 0,0 l/m 2 min 0 min 4,0 UV-I 862 W/m 24,7 km/h (4 Bft)
07.08.2014 12:42 22,7 C 24,4 C 78 % 1014,4 hPa 0,0 l/m 2 min 0 min 3,1 UV-I 791 W/m 14,2 km/h (3 Bft)
07.08.2014 12:44 22,9 C 24,4 C 78 % 1014,3 hPa 0,0 l/m 2 min 0 min 2,7 UV-I 775 W/m 28,2 km/h (4 Bft)
07.08.2014 12:46 22,9 C 23,3 C 77 % 1014,3 hPa 0,0 l/m 2 min 0 min 2,3 UV-I 482 W/m 24,7 km/h (4 Bft)
07.08.2014 12:48 22,7 C 22,8 C 76 % 1014,3 hPa 0,0 l/m 0 min 0 min 2,3 UV-I 307 W/m 14,2 km/h (3 Bft)
07.08.2014 12:50 22,6 C 22,8 C 77 % 1014,3 hPa 0,0 l/m 0 min 0 min 2,5 UV-I 378 W/m 14,2 km/h (3 Bft)
07.08.2014 12:52 22,7 C 23,3 C 77 % 1014,3 hPa 0,0 l/m 2 min 0 min 2,9 UV-I 446 W/m 17,7 km/h (3 Bft)
07.08.2014 12:54 23,1 C 23,9 C 76 % 1014,3 hPa 0,0 l/m 2 min 0 min 3,8 UV-I 580 W/m 21,3 km/h (4 Bft)
07.08.2014 12:56 23,4 C 24,4 C 78 % 1014,3 hPa 0,0 l/m 2 min 0 min 4,2 UV-I 809 W/m 14,2 km/h (3 Bft)
07.08.2014 12:58 23,5 C 24,4 C 75 % 1014,3 hPa 0,0 l/m 2 min 0 min 4,3 UV-I 841 W/m 14,2 km/h (3 Bft)
07.08.2014 13:00 23,8 C 24,4 C 77 % 1014,3 hPa 0,0 l/m 2 min 0 min 3,8 UV-I 844 W/m 10,7 km/h (2 Bft)
07.08.2014 13:02 23,7 C 24,4 C 73 % 1014,3 hPa 0,0 l/m 2 min 0 min 3,2 UV-I 762 W/m 10,7 km/h (2 Bft)
07.08.2014 13:04 23,5 C 23,9 C 75 % 1014,3 hPa 0,0 l/m 2 min 0 min 2,5 UV-I 560 W/m 17,7 km/h (3 Bft)
07.08.2014 13:06 23,3 C 23,3 C 74 % 1014,3 hPa 0,0 l/m 0 min 0 min 2,2 UV-I 332 W/m 24,7 km/h (4 Bft)
07.08.2014 13:08 23,0 C 22,8 C 74 % 1014,3 hPa 0,0 l/m 0 min 0 min 2,1 UV-I 284 W/m 14,2 km/h (3 Bft)
07.08.2014 13:10 22,7 C 22,8 C 76 % 1014,3 hPa 0,0 l/m 0 min 0 min 2,1 UV-I 296 W/m 21,3 km/h (4 Bft)
07.08.2014 13:12 22,6 C 22,8 C 77 % 1014,3 hPa 0,0 l/m 0 min 0 min 2,3 UV-I 330 W/m 21,3 km/h (4 Bft)
07.08.2014 13:14 22,7 C 23,3 C 78 % 1014,3 hPa 0,0 l/m 2 min 0 min 3,9 UV-I 396 W/m 0,0 km/h (0 Bft)
07.08.2014 13:16 22,8 C 23,3 C 77 % 1014,2 hPa 0,0 l/m 2 min 0 min 4,0 UV-I 841 W/m 14,2 km/h (3 Bft)
07.08.2014 13:18 23,2 C 23,9 C 75 % 1014,2 hPa 0,0 l/m 2 min 0 min 3,9 UV-I 827 W/m 21,3 km/h (4 Bft)
07.08.2014 13:20 23,5 C 23,9 C 75 % 1014,2 hPa 0,0 l/m 2 min 0 min 4,0 UV-I 913 W/m 24,7 km/h (4 Bft)
07.08.2014 13:22 23,6 C 24,4 C 74 % 1014,2 hPa 0,0 l/m 2 min 0 min 4,1 UV-I 916 W/m 21,3 km/h (4 Bft)
07.08.2014 13:24 23,6 C 23,9 C 73 % 1014,2 hPa 0,0 l/m 2 min 0 min 2,8 UV-I 479 W/m 17,7 km/h (3 Bft)
07.08.2014 13:26 23,3 C 23,3 C 72 % 1014,2 hPa 0,0 l/m 0 min 0 min 2,5 UV-I 356 W/m 0,0 km/h (0 Bft)
07.08.2014 13:28 23,3 C 23,3 C 75 % 1014,3 hPa 0,0 l/m 0 min 0 min 3,4 UV-I 338 W/m 21,3 km/h (4 Bft)
07.08.2014 13:30 23,4 C 23,3 C 73 % 1014,3 hPa 0,0 l/m 2 min 0 min 4,1 UV-I 747 W/m 17,7 km/h (3 Bft)
07.08.2014 13:32 23,7 C 23,9 C 77 % 1014,3 hPa 0,0 l/m 2 min 0 min 4,1 UV-I 825 W/m 21,3 km/h (4 Bft)
07.08.2014 13:34 24,2 C 24,4 C 76 % 1014,2 hPa 0,0 l/m 2 min 0 min 4,3 UV-I 882 W/m 21,3 km/h (4 Bft)
07.08.2014 13:36 24,5 C 24,4 C 74 % 1014,3 hPa 0,0 l/m 2 min 0 min 4,3 UV-I 867 W/m 21,3 km/h (4 Bft)
07.08.2014 13:38 24,6 C 24,4 C 75 % 1014,2 hPa 0,0 l/m 2 min 0 min 4,4 UV-I 845 W/m 14,2 km/h (3 Bft)
07.08.2014 13:40 24,6 C 24,4 C 73 % 1014,2 hPa 0,0 l/m 2 min 0 min 4,2 UV-I 748 W/m 0,0 km/h (0 Bft)
07.08.2014 13:42 24,3 C 23,9 C 72 % 1014,2 hPa 0,0 l/m 2 min 0 min 2,9 UV-I 490 W/m 24,7 km/h (4 Bft)
07.08.2014 13:44 24,0 C 23,3 C 74 % 1014,2 hPa 0,0 l/m 0 min 0 min 2,2 UV-I 229 W/m 24,7 km/h (4 Bft)
07.08.2014 13:46 23,7 C 22,8 C 73 % 1014,2 hPa 0,0 l/m 0 min 0 min 2,1 UV-I 225 W/m 0,0 km/h (0 Bft)
07.08.2014 13:48 23,3 C 22,8 C 74 % 1014,2 hPa 0,0 l/m 0 min 0 min 1,9 UV-I 228 W/m 0,0 km/h (0 Bft)
07.08.2014 13:50 23,1 C 22,8 C 76 % 1014,2 hPa 0,0 l/m 0 min 0 min 2,1 UV-I 265 W/m 0,0 km/h (0 Bft)
07.08.2014 13:52 22,9 C 22,2 C 74 % 1014,3 hPa 0,0 l/m 0 min 0 min 2,6 UV-I 311 W/m 0,0 km/h (0 Bft)
07.08.2014 13:54 22,8 C 22,2 C 75 % 1014,2 hPa 0,0 l/m 0 min 0 min 2,7 UV-I 322 W/m 0,0 km/h (0 Bft)
07.08.2014 13:56 22,9 C 22,8 C 77 % 1014,2 hPa 0,0 l/m 0 min 0 min 2,8 UV-I 327 W/m 0,0 km/h (0 Bft)
07.08.2014 13:58 23,1 C 22,8 C 75 % 1014,2 hPa 0,0 l/m 2 min 0 min 3,3 UV-I 430 W/m 17,7 km/h (3 Bft)
07.08.2014 14:00 23,3 C 23,3 C 75 % 1014,2 hPa 0,0 l/m 2 min 0 min 3,5 UV-I 656 W/m 0,0 km/h (0 Bft)
07.08.2014 14:02 23,6 C 23,3 C 75 % 1014,2 hPa 0,0 l/m 2 min 0 min 3,0 UV-I 595 W/m 0,0 km/h (0 Bft)
07.08.2014 14:04 23,4 C 23,3 C 72 % 1014,2 hPa 0,0 l/m 0 min 0 min 2,7 UV-I 341 W/m 14,2 km/h (3 Bft)
07.08.2014 14:06 23,6 C 23,9 C 75 % 1014,2 hPa 0,0 l/m 2 min 0 min 4,0 UV-I 850 W/m 14,2 km/h (3 Bft)
07.08.2014 14:08 23,8 C 23,9 C 72 % 1014,2 hPa 0,0 l/m 2 min 0 min 4,1 UV-I 879 W/m 17,7 km/h (3 Bft)
07.08.2014 14:10 23,8 C 23,9 C 72 % 1014,2 hPa 0,0 l/m 2 min 0 min 3,3 UV-I 868 W/m 17,7 km/h (3 Bft)
07.08.2014 14:12 23,9 C 23,3 C 74 % 1014,2 hPa 0,0 l/m 0 min 0 min 1,9 UV-I 322 W/m 35,4 km/h (5 Bft)
07.08.2014 14:14 23,9 C 23,3 C 74 % 1014,2 hPa 0,0 l/m 0 min 0 min 1,8 UV-I 231 W/m 21,3 km/h (4 Bft)
07.08.2014 14:16 23,7 C 22,8 C 72 % 1014,2 hPa 0,0 l/m 0 min 0 min 1,7 UV-I 203 W/m 24,7 km/h (4 Bft)
07.08.2014 14:18 23,3 C 22,2 C 73 % 1014,2 hPa 0,0 l/m 0 min 0 min 1,7 UV-I 197 W/m 24,7 km/h (4 Bft)
07.08.2014 14:20 23,2 C 22,2 C 75 % 1014,2 hPa 0,0 l/m 0 min 0 min 1,8 UV-I 222 W/m 17,7 km/h (3 Bft)
07.08.2014 14:22 23,3 C 22,8 C 77 % 1014,2 hPa 0,0 l/m 0 min 0 min 3,2 UV-I 237 W/m 10,7 km/h (2 Bft)
07.08.2014 14:24 23,6 C 22,8 C 75 % 1014,1 hPa 0,2 l/m 2 min 0 min 3,3 UV-I 781 W/m 3,5 km/h (1 Bft)
07.08.2014 14:26 23,7 C 22,8 C 75 % 1014,1 hPa 0,0 l/m 2 min 0 min 2,6 UV-I 700 W/m 0,0 km/h (0 Bft)
07.08.2014 14:28 23,8 C 22,8 C 73 % 1014,1 hPa 0,0 l/m 0 min 0 min 2,1 UV-I 261 W/m 10,7 km/h (2 Bft)
07.08.2014 14:30 23,8 C 23,3 C 74 % 1014,1 hPa 0,0 l/m 2 min 0 min 3,4 UV-I 553 W/m 3,5 km/h (1 Bft)
07.08.2014 14:32 23,9 C 23,3 C 73 % 1014,1 hPa 0,0 l/m 2 min 0 min 3,1 UV-I 844 W/m 0,0 km/h (0 Bft)
07.08.2014 14:34 23,9 C 23,3 C 75 % 1014,2 hPa 0,0 l/m 2 min 0 min 3,2 UV-I 844 W/m 10,7 km/h (2 Bft)
07.08.2014 14:36 24,1 C 23,3 C 72 % 1014,1 hPa 0,0 l/m 2 min 0 min 3,6 UV-I 464 W/m 0,0 km/h (0 Bft)
07.08.2014 14:38 24,0 C 23,3 C 73 % 1014,1 hPa 0,0 l/m 2 min 0 min 3,2 UV-I 529 W/m 7,1 km/h (2 Bft)
07.08.2014 14:40 24,0 C 23,3 C 73 % 1014,1 hPa 0,0 l/m 2 min 0 min 3,0 UV-I 570 W/m 3,5 km/h (1 Bft)
07.08.2014 14:42 24,0 C 23,3 C 75 % 1014,1 hPa 0,0 l/m 2 min 0 min 3,0 UV-I 570 W/m 14,2 km/h (3 Bft)
07.08.2014 14:44 23,9 C 23,3 C 74 % 1014,1 hPa 0,0 l/m 0 min 0 min 2,4 UV-I 343 W/m 7,1 km/h (2 Bft)
07.08.2014 14:46 23,9 C 23,3 C 73 % 1014,0 hPa 0,0 l/m 2 min 0 min 3,2 UV-I 443 W/m 0,0 km/h (0 Bft)
07.08.2014 14:48 24,0 C 23,3 C 73 % 1014,1 hPa 0,0 l/m 2 min 0 min 2,5 UV-I 770 W/m 0,0 km/h (0 Bft)
07.08.2014 14:50 24,1 C 23,3 C 73 % 1014,0 hPa 0,0 l/m 2 min 0 min 2,0 UV-I 770 W/m 0,0 km/h (0 Bft)
07.08.2014 14:52 23,9 C 22,8 C 72 % 1014,1 hPa 0,0 l/m 0 min 0 min 1,8 UV-I 337 W/m 0,0 km/h (0 Bft)
07.08.2014 14:54 23,7 C 22,8 C 73 % 1014,0 hPa 0,0 l/m 0 min 0 min 2,3 UV-I 252 W/m 0,0 km/h (0 Bft)
07.08.2014 14:56 23,6 C 22,8 C 74 % 1014,0 hPa 0,0 l/m 0 min 0 min 1,7 UV-I 202 W/m 3,5 km/h (1 Bft)
07.08.2014 14:58 23,6 C 22,8 C 75 % 1014,0 hPa 0,0 l/m 0 min 0 min 1,8 UV-I 200 W/m 0,0 km/h (0 Bft)
07.08.2014 15:00 23,4 C 22,8 C 72 % 1014,0 hPa 0,0 l/m 0 min 0 min 2,7 UV-I 343 W/m 3,5 km/h (1 Bft)
07.08.2014 15:02 23,6 C 22,8 C 74 % 1014,0 hPa 0,0 l/m 2 min 0 min 3,7 UV-I 750 W/m 0,0 km/h (0 Bft)
07.08.2014 15:04 23,8 C 23,3 C 74 % 1014,0 hPa 0,0 l/m 2 min 0 min 3,7 UV-I 740 W/m 0,0 km/h (0 Bft)
07.08.2014 15:06 24,0 C 23,3 C 72 % 1014,0 hPa 0,0 l/m 2 min 0 min 3,3 UV-I 700 W/m 17,7 km/h (3 Bft)
07.08.2014 15:08 23,9 C 23,3 C 73 % 1014,0 hPa 0,0 l/m 2 min 0 min 3,7 UV-I 692 W/m 10,7 km/h (2 Bft)
07.08.2014 15:10 24,2 C 23,9 C 72 % 1014,0 hPa 0,0 l/m 2 min 0 min 3,7 UV-I 760 W/m 17,7 km/h (3 Bft)
07.08.2014 15:12 24,3 C 23,9 C 74 % 1014,0 hPa 0,0 l/m 2 min 0 min 3,5 UV-I 726 W/m 17,7 km/h (3 Bft)
07.08.2014 15:14 24,3 C 23,9 C 72 % 1014,0 hPa 0,0 l/m 2 min 0 min 3,2 UV-I 653 W/m 17,7 km/h (3 Bft)
07.08.2014 15:16 24,5 C 23,9 C 70 % 1014,1 hPa 0,0 l/m 2 min 0 min 2,9 UV-I 652 W/m 17,7 km/h (3 Bft)
07.08.2014 15:18 24,6 C 23,9 C 71 % 1014,1 hPa 0,0 l/m 2 min 0 min 2,6 UV-I 652 W/m 21,3 km/h (4 Bft)
07.08.2014 15:20 24,4 C 23,3 C 67 % 1014,1 hPa 0,0 l/m 2 min 0 min 2,1 UV-I 500 W/m 21,3 km/h (4 Bft)
07.08.2014 15:22 24,2 C 23,3 C 68 % 1014,0 hPa 0,0 l/m 0 min 0 min 1,5 UV-I 170 W/m 17,7 km/h (3 Bft)
07.08.2014 15:24 23,9 C 22,8 C 69 % 1014,1 hPa 0,0 l/m 0 min 0 min 1,2 UV-I 146 W/m 14,2 km/h (3 Bft)
07.08.2014 15:26 23,8 C 22,8 C 71 % 1014,1 hPa 0,0 l/m 0 min 0 min 0,9 UV-I 128 W/m 21,3 km/h (4 Bft)
07.08.2014 15:28 23,7 C 22,8 C 73 % 1014,1 hPa 0,0 l/m 0 min 0 min 0,7 UV-I 118 W/m 17,7 km/h (3 Bft)
07.08.2014 15:30 23,6 C 22,2 C 74 % 1014,1 hPa 0,0 l/m 0 min 0 min 0,6 UV-I 114 W/m 17,7 km/h (3 Bft)
07.08.2014 15:32 23,5 C 22,2 C 73 % 1014,1 hPa 0,0 l/m 0 min 0 min 0,5 UV-I 115 W/m 21,3 km/h (4 Bft)
07.08.2014 15:34 23,4 C 22,2 C 73 % 1014,1 hPa 0,0 l/m 0 min 0 min 0,5 UV-I 123 W/m 21,3 km/h (4 Bft)
07.08.2014 15:36 23,3 C 22,2 C 74 % 1014,1 hPa 0,0 l/m 0 min 0 min 0,5 UV-I 138 W/m 10,7 km/h (2 Bft)
07.08.2014 15:38 23,4 C 22,2 C 75 % 1014,1 hPa 0,0 l/m 0 min 0 min 0,7 UV-I 162 W/m 21,3 km/h (4 Bft)
07.08.2014 15:40 23,4 C 21,7 C 74 % 1014,1 hPa 0,0 l/m 0 min 2 min 0,8 UV-I 185 W/m 28,2 km/h (4 Bft)
07.08.2014 15:42 23,2 C 20,6 C 76 % 1014,1 hPa 0,0 l/m 0 min 2 min 1,0 UV-I 207 W/m 21,3 km/h (4 Bft)
07.08.2014 15:44 22,9 C 20,0 C 79 % 1014,1 hPa 0,0 l/m 0 min 2 min 1,1 UV-I 240 W/m 24,7 km/h (4 Bft)
07.08.2014 15:46 22,9 C 20,6 C 82 % 1014,1 hPa 0,0 l/m 2 min 2 min 1,9 UV-I 458 W/m 14,2 km/h (3 Bft)
07.08.2014 15:48 23,1 C 20,6 C 83 % 1014,2 hPa 0,0 l/m 2 min 2 min 2,4 UV-I 701 W/m 14,2 km/h (3 Bft)
07.08.2014 15:50 23,4 C 21,1 C 83 % 1014,1 hPa 0,0 l/m 2 min 2 min 2,6 UV-I 705 W/m 24,7 km/h (4 Bft)
07.08.2014 15:52 23,5 C 21,1 C 79 % 1014,2 hPa 0,0 l/m 2 min 0 min 2,6 UV-I 682 W/m 24,7 km/h (4 Bft)
07.08.2014 15:54 23,6 C 21,7 C 78 % 1014,3 hPa 0,0 l/m 2 min 0 min 2,6 UV-I 664 W/m 24,7 km/h (4 Bft)
07.08.2014 15:56 23,9 C 22,2 C 80 % 1014,3 hPa 0,0 l/m 2 min 0 min 2,6 UV-I 649 W/m 21,3 km/h (4 Bft)
07.08.2014 15:58 24,1 C 22,2 C 78 % 1014,3 hPa 0,0 l/m 2 min 0 min 1,8 UV-I 417 W/m 21,3 km/h (4 Bft)
07.08.2014 16:00 23,9 C 22,2 C 75 % 1014,3 hPa 0,0 l/m 2 min 0 min 2,2 UV-I 428 W/m 21,3 km/h (4 Bft)
07.08.2014 16:02 23,7 C 22,8 C 75 % 1014,3 hPa 0,0 l/m 2 min 0 min 2,2 UV-I 572 W/m 10,7 km/h (2 Bft)
07.08.2014 16:04 23,9 C 22,8 C 74 % 1014,3 hPa 0,0 l/m 2 min 0 min 2,3 UV-I 592 W/m 17,7 km/h (3 Bft)
07.08.2014 16:06 23,9 C 22,8 C 72 % 1014,3 hPa 0,0 l/m 2 min 0 min 2,2 UV-I 590 W/m 24,7 km/h (4 Bft)
07.08.2014 16:08 24,1 C 23,3 C 73 % 1014,2 hPa 0,0 l/m 2 min 0 min 2,3 UV-I 610 W/m 28,2 km/h (4 Bft)
07.08.2014 16:10 24,2 C 23,3 C 72 % 1014,2 hPa 0,0 l/m 2 min 0 min 2,2 UV-I 621 W/m 21,3 km/h (4 Bft)
07.08.2014 16:12 24,2 C 23,3 C 71 % 1014,1 hPa 0,0 l/m 2 min 0 min 1,4 UV-I 372 W/m 21,3 km/h (4 Bft)
07.08.2014 16:14 24,1 C 23,3 C 72 % 1014,0 hPa 0,0 l/m 0 min 0 min 1,7 UV-I 278 W/m 35,4 km/h (5 Bft)
07.08.2014 16:16 24,1 C 23,3 C 72 % 1014,0 hPa 0,0 l/m 2 min 0 min 2,2 UV-I 484 W/m 28,2 km/h (4 Bft)
07.08.2014 16:18 24,1 C 23,3 C 71 % 1014,0 hPa 0,0 l/m 2 min 0 min 2,0 UV-I 542 W/m 21,3 km/h (4 Bft)
07.08.2014 16:20 24,1 C 22,8 C 72 % 1014,0 hPa 0,0 l/m 0 min 0 min 1,6 UV-I 277 W/m 21,3 km/h (4 Bft)
07.08.2014 16:22 24,2 C 22,8 C 74 % 1014,0 hPa 0,0 l/m 0 min 0 min 1,7 UV-I 251 W/m 14,2 km/h (3 Bft)
07.08.2014 16:24 24,2 C 22,8 C 73 % 1014,0 hPa 0,0 l/m 0 min 0 min 1,7 UV-I 250 W/m 14,2 km/h (3 Bft)
07.08.2014 16:26 24,1 C 22,8 C 71 % 1014,1 hPa 0,0 l/m 0 min 0 min 1,6 UV-I 271 W/m 14,2 km/h (3 Bft)
07.08.2014 16:28 24,1 C 22,8 C 73 % 1014,1 hPa 0,0 l/m 0 min 0 min 1,3 UV-I 251 W/m 0,0 km/h (0 Bft)
07.08.2014 16:30 23,9 C 22,8 C 71 % 1014,1 hPa 0,0 l/m 0 min 0 min 1,3 UV-I 267 W/m 14,2 km/h (3 Bft)
07.08.2014 16:32 23,9 C 22,8 C 73 % 1014,1 hPa 0,0 l/m 2 min 0 min 1,5 UV-I 344 W/m 21,3 km/h (4 Bft)
07.08.2014 16:34 24,1 C 23,3 C 72 % 1014,1 hPa 0,0 l/m 2 min 0 min 2,0 UV-I 452 W/m 14,2 km/h (3 Bft)
07.08.2014 16:36 24,4 C 23,9 C 73 % 1014,1 hPa 0,0 l/m 2 min 0 min 1,9 UV-I 530 W/m 24,7 km/h (4 Bft)
07.08.2014 16:38 24,6 C 23,3 C 72 % 1014,1 hPa 0,0 l/m 0 min 0 min 1,4 UV-I 307 W/m 17,7 km/h (3 Bft)
07.08.2014 16:40 24,3 C 23,3 C 72 % 1014,1 hPa 0,0 l/m 0 min 0 min 1,4 UV-I 262 W/m 21,3 km/h (4 Bft)
07.08.2014 16:42 24,3 C 23,3 C 73 % 1014,0 hPa 0,0 l/m 2 min 0 min 2,0 UV-I 366 W/m 24,7 km/h (4 Bft)
07.08.2014 16:44 24,5 C 23,9 C 73 % 1014,0 hPa 0,0 l/m 2 min 0 min 2,0 UV-I 609 W/m 17,7 km/h (3 Bft)
07.08.2014 16:46 24,7 C 23,9 C 74 % 1013,9 hPa 0,0 l/m 2 min 0 min 1,9 UV-I 599 W/m 10,7 km/h (2 Bft)
07.08.2014 16:48 24,9 C 23,9 C 72 % 1013,9 hPa 0,0 l/m 2 min 0 min 1,9 UV-I 594 W/m 21,3 km/h (4 Bft)
07.08.2014 16:50 25,1 C 24,4 C 72 % 1013,9 hPa 0,0 l/m 2 min 0 min 1,9 UV-I 577 W/m 14,2 km/h (3 Bft)
07.08.2014 16:52 25,2 C 24,4 C 71 % 1014,0 hPa 0,0 l/m 2 min 0 min 1,8 UV-I 554 W/m 21,3 km/h (4 Bft)
07.08.2014 16:54 25,0 C 23,9 C 69 % 1014,0 hPa 0,0 l/m 2 min 0 min 1,6 UV-I 551 W/m 3,5 km/h (1 Bft)
07.08.2014 16:56 24,8 C 23,9 C 71 % 1014,0 hPa 0,0 l/m 2 min 0 min 1,7 UV-I 544 W/m 0,0 km/h (0 Bft)
07.08.2014 16:58 24,9 C 23,9 C 73 % 1014,0 hPa 0,0 l/m 2 min 0 min 1,7 UV-I 550 W/m 17,7 km/h (3 Bft)
07.08.2014 17:00 25,1 C 24,4 C 71 % 1014,1 hPa 0,0 l/m 2 min 0 min 1,7 UV-I 555 W/m 24,7 km/h (4 Bft)
07.08.2014 17:02 25,2 C 24,4 C 69 % 1014,1 hPa 0,0 l/m 2 min 0 min 1,6 UV-I 542 W/m 24,7 km/h (4 Bft)
07.08.2014 17:04 25,2 C 23,9 C 69 % 1014,1 hPa 0,0 l/m 2 min 0 min 1,6 UV-I 538 W/m 21,3 km/h (4 Bft)
07.08.2014 17:06 25,3 C 23,9 C 68 % 1014,0 hPa 0,0 l/m 2 min 0 min 1,5 UV-I 522 W/m 17,7 km/h (3 Bft)
07.08.2014 17:08 25,2 C 23,9 C 69 % 1014,1 hPa 0,0 l/m 2 min 0 min 1,1 UV-I 353 W/m 7,1 km/h (2 Bft)
07.08.2014 17:10 24,9 C 23,3 C 67 % 1014,1 hPa 0,0 l/m 0 min 0 min 1,2 UV-I 272 W/m 0,0 km/h (0 Bft)
07.08.2014 17:12 24,9 C 23,9 C 68 % 1014,1 hPa 0,0 l/m 2 min 0 min 1,4 UV-I 512 W/m 21,3 km/h (4 Bft)
07.08.2014 17:14 24,8 C 23,9 C 68 % 1014,0 hPa 0,0 l/m 2 min 0 min 1,4 UV-I 508 W/m 17,7 km/h (3 Bft)
07.08.2014 17:16 24,7 C 23,9 C 68 % 1014,1 hPa 0,0 l/m 2 min 0 min 1,4 UV-I 494 W/m 21,3 km/h (4 Bft)
07.08.2014 17:18 24,6 C 23,3 C 69 % 1014,0 hPa 0,0 l/m 2 min 0 min 1,2 UV-I 461 W/m 24,7 km/h (4 Bft)
07.08.2014 17:20 24,4 C 23,3 C 70 % 1014,0 hPa 0,0 l/m 2 min 0 min 1,3 UV-I 464 W/m 24,7 km/h (4 Bft)
07.08.2014 17:22 24,4 C 23,3 C 68 % 1014,0 hPa 0,0 l/m 2 min 0 min 1,3 UV-I 449 W/m 21,3 km/h (4 Bft)
07.08.2014 17:24 24,4 C 23,3 C 70 % 1014,1 hPa 0,0 l/m 2 min 0 min 1,2 UV-I 446 W/m 21,3 km/h (4 Bft)
07.08.2014 17:26 24,6 C 23,3 C 68 % 1014,0 hPa 0,0 l/m 2 min 0 min 1,2 UV-I 439 W/m 21,3 km/h (4 Bft)
07.08.2014 17:28 24,6 C 23,3 C 69 % 1014,1 hPa 0,0 l/m 2 min 0 min 1,1 UV-I 440 W/m 10,7 km/h (2 Bft)
07.08.2014 17:30 24,5 C 22,8 C 67 % 1014,1 hPa 0,0 l/m 2 min 0 min 1,0 UV-I 441 W/m 14,2 km/h (3 Bft)
07.08.2014 17:32 24,3 C 22,8 C 68 % 1014,1 hPa 0,0 l/m 2 min 0 min 0,9 UV-I 440 W/m 21,3 km/h (4 Bft)
07.08.2014 17:34 24,3 C 22,8 C 69 % 1014,1 hPa 0,0 l/m 2 min 0 min 0,8 UV-I 440 W/m 17,7 km/h (3 Bft)
07.08.2014 17:36 24,6 C 22,8 C 70 % 1014,1 hPa 0,0 l/m 2 min 0 min 0,7 UV-I 438 W/m 14,2 km/h (3 Bft)
07.08.2014 17:38 24,7 C 23,3 C 66 % 1014,1 hPa 0,0 l/m 2 min 0 min 0,7 UV-I 437 W/m 24,7 km/h (4 Bft)
07.08.2014 17:40 24,8 C 22,8 C 69 % 1014,2 hPa 0,0 l/m 2 min 0 min 0,7 UV-I 426 W/m 17,7 km/h (3 Bft)
07.08.2014 17:42 24,8 C 22,8 C 69 % 1014,2 hPa 0,0 l/m 2 min 0 min 0,7 UV-I 429 W/m 10,7 km/h (2 Bft)
07.08.2014 17:44 24,8 C 23,3 C 69 % 1014,2 hPa 0,0 l/m 2 min 0 min 0,7 UV-I 410 W/m 17,7 km/h (3 Bft)
07.08.2014 17:46 24,7 C 22,8 C 66 % 1014,2 hPa 0,0 l/m 2 min 0 min 0,7 UV-I 393 W/m 17,7 km/h (3 Bft)
07.08.2014 17:48 24,7 C 22,8 C 67 % 1014,2 hPa 0,0 l/m 2 min 0 min 0,6 UV-I 399 W/m 14,2 km/h (3 Bft)
07.08.2014 17:50 24,8 C 22,8 C 67 % 1014,1 hPa 0,0 l/m 2 min 0 min 0,6 UV-I 401 W/m 14,2 km/h (3 Bft)
07.08.2014 17:52 24,9 C 22,8 C 66 % 1014,1 hPa 0,0 l/m 2 min 0 min 0,6 UV-I 404 W/m 17,7 km/h (3 Bft)
07.08.2014 17:54 24,9 C 22,8 C 67 % 1014,1 hPa 0,0 l/m 2 min 0 min 0,6 UV-I 395 W/m 14,2 km/h (3 Bft)
07.08.2014 17:56 24,8 C 22,8 C 67 % 1014,1 hPa 0,0 l/m 2 min 0 min 0,5 UV-I 381 W/m 10,7 km/h (2 Bft)
07.08.2014 17:58 24,8 C 22,8 C 67 % 1014,1 hPa 0,0 l/m 2 min 0 min 0,5 UV-I 370 W/m 21,3 km/h (4 Bft)
07.08.2014 18:00 24,6 C 22,8 C 66 % 1014,1 hPa 0,0 l/m 2 min 0 min 0,5 UV-I 362 W/m 24,7 km/h (4 Bft)
07.08.2014 18:02 24,3 C 22,8 C 66 % 1014,1 hPa 0,0 l/m 2 min 0 min 0,5 UV-I 355 W/m 21,3 km/h (4 Bft)
07.08.2014 18:05 24,2 C 22,8 C 67 % 1014,2 hPa 0,0 l/m 2 min 0 min 0,0 UV-I 251 W/m 17,7 km/h (3 Bft)
07.08.2014 18:06 24,1 C 22,8 C 66 % 1014,2 hPa 0,0 l/m 0 min 0 min 0,0 UV-I 118 W/m 14,2 km/h (3 Bft)
07.08.2014 18:08 24,0 C 22,2 C 67 % 1014,1 hPa 0,0 l/m 0 min 0 min 0,0 UV-I 120 W/m 17,7 km/h (3 Bft)
07.08.2014 18:10 23,9 C 22,2 C 68 % 1014,1 hPa 0,0 l/m 0 min 0 min 0,0 UV-I 120 W/m 10,7 km/h (2 Bft)
07.08.2014 18:12 23,8 C 22,2 C 69 % 1014,1 hPa 0,0 l/m 0 min 0 min 0,0 UV-I 123 W/m 14,2 km/h (3 Bft)
07.08.2014 18:14 23,7 C 22,2 C 68 % 1014,2 hPa 0,0 l/m 0 min 0 min 0,0 UV-I 116 W/m 14,2 km/h (3 Bft)
07.08.2014 18:16 23,7 C 22,2 C 69 % 1014,1 hPa 0,0 l/m 0 min 0 min 0,0 UV-I 137 W/m 14,2 km/h (3 Bft)
07.08.2014 18:18 23,6 C 22,2 C 70 % 1014,1 hPa 0,0 l/m 0 min 0 min 0,0 UV-I 107 W/m 17,7 km/h (3 Bft)
07.08.2014 18:20 23,5 C 22,2 C 69 % 1014,1 hPa 0,0 l/m 0 min 0 min 0,0 UV-I 104 W/m 3,5 km/h (1 Bft)
07.08.2014 18:22 23,5 C 22,2 C 70 % 1014,1 hPa 0,0 l/m 0 min 0 min 0,0 UV-I 119 W/m 10,7 km/h (2 Bft)
07.08.2014 18:24 23,5 C 22,2 C 69 % 1014,1 hPa 0,0 l/m 0 min 0 min 0,0 UV-I 196 W/m 17,7 km/h (3 Bft)
07.08.2014 18:26 23,6 C 22,2 C 69 % 1014,1 hPa 0,0 l/m 0 min 0 min 0,0 UV-I 184 W/m 10,7 km/h (2 Bft)
07.08.2014 18:28 23,6 C 22,2 C 70 % 1014,1 hPa 0,0 l/m 0 min 0 min 0,0 UV-I 188 W/m 14,2 km/h (3 Bft)
07.08.2014 18:30 23,6 C 22,2 C 70 % 1014,0 hPa 0,0 l/m 2 min 0 min 0,0 UV-I 264 W/m 14,2 km/h (3 Bft)
07.08.2014 18:32 23,6 C 22,2 C 69 % 1014,1 hPa 0,0 l/m 2 min 0 min 0,0 UV-I 256 W/m 3,5 km/h (1 Bft)
07.08.2014 18:34 23,7 C 22,2 C 68 % 1014,1 hPa 0,0 l/m 2 min 0 min 0,0 UV-I 250 W/m 3,5 km/h (1 Bft)
07.08.2014 18:36 23,7 C 22,2 C 68 % 1014,1 hPa 0,0 l/m 2 min 0 min 0,0 UV-I 238 W/m 14,2 km/h (3 Bft)
07.08.2014 18:38 23,7 C 22,2 C 67 % 1014,1 hPa 0,0 l/m 2 min 0 min 0,0 UV-I 194 W/m 17,7 km/h (3 Bft)
07.08.2014 18:40 23,7 C 22,2 C 67 % 1014,1 hPa 0,0 l/m 2 min 0 min 0,0 UV-I 220 W/m 14,2 km/h (3 Bft)
07.08.2014 18:42 23,7 C 22,2 C 67 % 1014,0 hPa 0,0 l/m 2 min 0 min 0,0 UV-I 238 W/m 3,5 km/h (1 Bft)
07.08.2014 18:44 23,7 C 22,2 C 68 % 1014,1 hPa 0,0 l/m 2 min 0 min 0,0 UV-I 232 W/m 3,5 km/h (1 Bft)
07.08.2014 18:46 23,8 C 22,2 C 69 % 1014,0 hPa 0,0 l/m 2 min 0 min 0,0 UV-I 221 W/m 17,7 km/h (3 Bft)
07.08.2014 18:48 23,8 C 22,2 C 69 % 1014,0 hPa 0,0 l/m 2 min 0 min 0,0 UV-I 220 W/m 10,7 km/h (2 Bft)
07.08.2014 18:50 23,8 C 22,2 C 69 % 1014,0 hPa 0,0 l/m 2 min 0 min 0,0 UV-I 217 W/m 17,7 km/h (3 Bft)
07.08.2014 18:52 23,8 C 22,2 C 68 % 1014,0 hPa 0,0 l/m 2 min 0 min 0,0 UV-I 213 W/m 10,7 km/h (2 Bft)
07.08.2014 18:54 23,8 C 22,2 C 69 % 1014,0 hPa 0,0 l/m 2 min 0 min 0,0 UV-I 205 W/m 7,1 km/h (2 Bft)
07.08.2014 18:56 23,9 C 22,2 C 69 % 1014,0 hPa 0,0 l/m 2 min 0 min 0,0 UV-I 195 W/m 17,7 km/h (3 Bft)
07.08.2014 18:58 23,8 C 22,2 C 68 % 1014,0 hPa 0,0 l/m 2 min 0 min 0,0 UV-I 192 W/m 24,7 km/h (4 Bft)
07.08.2014 19:00 23,8 C 22,2 C 68 % 1014,0 hPa 0,0 l/m 2 min 0 min 0,0 UV-I 189 W/m 21,3 km/h (4 Bft)
07.08.2014 19:02 23,7 C 22,2 C 68 % 1014,0 hPa 0,0 l/m 2 min 0 min 0,0 UV-I 185 W/m 10,7 km/h (2 Bft)
07.08.2014 19:04 23,7 C 22,2 C 68 % 1014,0 hPa 0,0 l/m 2 min 0 min 0,0 UV-I 181 W/m 14,2 km/h (3 Bft)
07.08.2014 19:06 23,6 C 22,2 C 67 % 1014,0 hPa 0,0 l/m 2 min 0 min 0,0 UV-I 178 W/m 14,2 km/h (3 Bft)
07.08.2014 19:08 23,6 C 22,2 C 68 % 1014,0 hPa 0,0 l/m 2 min 0 min 0,0 UV-I 178 W/m 0,0 km/h (0 Bft)
07.08.2014 19:10 23,6 C 22,2 C 69 % 1013,9 hPa 0,0 l/m 2 min 0 min 0,0 UV-I 177 W/m 17,7 km/h (3 Bft)
07.08.2014 19:12 23,6 C 22,2 C 69 % 1014,0 hPa 0,0 l/m 2 min 0 min 0,0 UV-I 176 W/m 14,2 km/h (3 Bft)
07.08.2014 19:14 23,6 C 22,2 C 70 % 1014,0 hPa 0,0 l/m 2 min 0 min 0,0 UV-I 177 W/m 17,7 km/h (3 Bft)
07.08.2014 19:16 23,6 C 22,2 C 70 % 1013,9 hPa 0,0 l/m 2 min 0 min 0,0 UV-I 175 W/m 17,7 km/h (3 Bft)
07.08.2014 19:18 23,6 C 22,2 C 72 % 1014,0 hPa 0,0 l/m 2 min 0 min 0,0 UV-I 172 W/m 21,3 km/h (4 Bft)
07.08.2014 19:20 23,6 C 22,2 C 70 % 1013,9 hPa 0,0 l/m 2 min 0 min 0,0 UV-I 169 W/m 21,3 km/h (4 Bft)
07.08.2014 19:22 23,6 C 22,2 C 71 % 1013,9 hPa 0,0 l/m 2 min 0 min 0,0 UV-I 164 W/m 17,7 km/h (3 Bft)
07.08.2014 19:24 23,6 C 22,2 C 71 % 1014,0 hPa 0,0 l/m 2 min 0 min 0,0 UV-I 151 W/m 17,7 km/h (3 Bft)
07.08.2014 19:26 23,6 C 22,2 C 71 % 1014,1 hPa 0,0 l/m 2 min 0 min 0,0 UV-I 144 W/m 17,7 km/h (3 Bft)
07.08.2014 19:28 23,6 C 22,2 C 70 % 1014,1 hPa 0,0 l/m 2 min 0 min 0,0 UV-I 140 W/m 3,5 km/h (1 Bft)
07.08.2014 19:30 23,5 C 22,2 C 70 % 1014,2 hPa 0,0 l/m 2 min 0 min 0,0 UV-I 132 W/m 7,1 km/h (2 Bft)
07.08.2014 19:32 23,5 C 21,7 C 70 % 1014,1 hPa 0,0 l/m 2 min 0 min 0,0 UV-I 123 W/m 21,3 km/h (4 Bft)
07.08.2014 19:34 23,4 C 21,7 C 70 % 1014,2 hPa 0,0 l/m 2 min 0 min 0,0 UV-I 115 W/m 17,7 km/h (3 Bft)
07.08.2014 19:36 23,4 C 21,7 C 69 % 1014,2 hPa 0,0 l/m 0 min 0 min 0,0 UV-I 109 W/m 17,7 km/h (3 Bft)
07.08.2014 19:38 23,3 C 21,7 C 70 % 1014,2 hPa 0,0 l/m 0 min 0 min 0,0 UV-I 105 W/m 17,7 km/h (3 Bft)
07.08.2014 19:40 23,3 C 21,7 C 70 % 1014,2 hPa 0,0 l/m 0 min 0 min 0,0 UV-I 86 W/m 17,7 km/h (3 Bft)
07.08.2014 19:42 23,3 C 21,7 C 70 % 1014,2 hPa 0,0 l/m 0 min 0 min 0,0 UV-I 64 W/m 14,2 km/h (3 Bft)
07.08.2014 19:44 23,2 C 21,7 C 71 % 1014,2 hPa 0,0 l/m 0 min 0 min 0,0 UV-I 65 W/m 0,0 km/h (0 Bft)
07.08.2014 19:46 23,2 C 21,7 C 71 % 1014,2 hPa 0,0 l/m 0 min 0 min 0,0 UV-I 78 W/m 0,0 km/h (0 Bft)
07.08.2014 19:48 23,1 C 21,1 C 72 % 1014,3 hPa 0,0 l/m 0 min 0 min 0,0 UV-I 76 W/m 0,0 km/h (0 Bft)
07.08.2014 19:50 23,0 C 21,1 C 72 % 1014,3 hPa 0,0 l/m 0 min 0 min 0,0 UV-I 74 W/m 0,0 km/h (0 Bft)
07.08.2014 19:52 23,0 C 21,1 C 72 % 1014,3 hPa 0,0 l/m 0 min 0 min 0,0 UV-I 72 W/m 0,0 km/h (0 Bft)
07.08.2014 19:54 23,0 C 21,1 C 72 % 1014,3 hPa 0,0 l/m 0 min 0 min 0,0 UV-I 72 W/m 0,0 km/h (0 Bft)
07.08.2014 19:56 23,0 C 21,1 C 72 % 1014,3 hPa 0,0 l/m 0 min 0 min 0,0 UV-I 71 W/m 0,0 km/h (0 Bft)
07.08.2014 19:58 23,0 C 21,1 C 72 % 1014,2 hPa 0,0 l/m 0 min 0 min 0,0 UV-I 69 W/m 14,2 km/h (3 Bft)
07.08.2014 20:00 22,9 C 21,1 C 72 % 1014,3 hPa 0,0 l/m 0 min 0 min 0,0 UV-I 63 W/m 14,2 km/h (3 Bft)
07.08.2014 20:02 22,9 C 21,1 C 73 % 1014,3 hPa 0,0 l/m 0 min 0 min 0,0 UV-I 57 W/m 14,2 km/h (3 Bft)
07.08.2014 20:04 22,9 C 21,1 C 73 % 1014,3 hPa 0,0 l/m 0 min 0 min 0,0 UV-I 52 W/m 0,0 km/h (0 Bft)
07.08.2014 20:06 22,8 C 21,1 C 73 % 1014,3 hPa 0,0 l/m 0 min 0 min 0,0 UV-I 50 W/m 3,5 km/h (1 Bft)
07.08.2014 20:08 22,8 C 21,1 C 73 % 1014,3 hPa 0,0 l/m 0 min 0 min 0,0 UV-I 49 W/m 3,5 km/h (1 Bft)
07.08.2014 20:10 22,7 C 21,1 C 73 % 1014,3 hPa 0,0 l/m 0 min 0 min 0,0 UV-I 48 W/m 17,7 km/h (3 Bft)
07.08.2014 20:12 22,7 C 21,1 C 73 % 1014,4 hPa 0,0 l/m 0 min 0 min 0,0 UV-I 46 W/m 10,7 km/h (2 Bft)
07.08.2014 20:14 22,6 C 21,1 C 73 % 1014,5 hPa 0,0 l/m 0 min 0 min 0,0 UV-I 44 W/m 3,5 km/h (1 Bft)
07.08.2014 20:16 22,6 C 21,1 C 73 % 1014,5 hPa 0,0 l/m 0 min 0 min 0,0 UV-I 41 W/m 3,5 km/h (1 Bft)
07.08.2014 20:18 22,5 C 21,1 C 73 % 1014,5 hPa 0,0 l/m 0 min 0 min 0,0 UV-I 39 W/m 14,2 km/h (3 Bft)
07.08.2014 20:20 22,4 C 21,1 C 73 % 1014,5 hPa 0,0 l/m 0 min 0 min 0,0 UV-I 34 W/m 10,7 km/h (2 Bft)
07.08.2014 20:22 22,4 C 20,6 C 73 % 1014,5 hPa 0,0 l/m 0 min 0 min 0,0 UV-I 32 W/m 10,7 km/h (2 Bft)
07.08.2014 20:24 22,3 C 20,6 C 74 % 1014,5 hPa 0,0 l/m 0 min 0 min 0,0 UV-I 29 W/m 3,5 km/h (1 Bft)
07.08.2014 20:26 22,3 C 20,6 C 74 % 1014,5 hPa 0,0 l/m 0 min 0 min 0,0 UV-I 27 W/m 14,2 km/h (3 Bft)
07.08.2014 20:28 22,3 C 20,6 C 74 % 1014,5 hPa 0,0 l/m 0 min 0 min 0,0 UV-I 25 W/m 0,0 km/h (0 Bft)
07.08.2014 20:30 22,2 C 20,6 C 74 % 1014,5 hPa 0,0 l/m 0 min 0 min 0,0 UV-I 22 W/m 0,0 km/h (0 Bft)
07.08.2014 20:32 22,2 C 20,6 C 74 % 1014,5 hPa 0,0 l/m 0 min 0 min 0,0 UV-I 20 W/m 0,0 km/h (0 Bft)
07.08.2014 20:34 22,1 C 20,0 C 74 % 1014,5 hPa 0,0 l/m 0 min 0 min 0,0 UV-I 18 W/m 0,0 km/h (0 Bft)
07.08.2014 20:36 22,1 C 20,0 C 75 % 1014,6 hPa 0,0 l/m 0 min 0 min 0,0 UV-I 18 W/m 0,0 km/h (0 Bft)
07.08.2014 20:38 22,0 C 20,0 C 75 % 1014,6 hPa 0,0 l/m 0 min 0 min 0,0 UV-I 16 W/m 17,7 km/h (3 Bft)
07.08.2014 20:40 21,9 C 20,0 C 75 % 1014,6 hPa 0,0 l/m 0 min 0 min 0,0 UV-I 15 W/m 14,2 km/h (3 Bft)
07.08.2014 20:42 21,8 C 20,0 C 76 % 1014,5 hPa 0,0 l/m 0 min 0 min 0,0 UV-I 14 W/m 10,7 km/h (2 Bft)
07.08.2014 20:44 21,7 C 20,0 C 76 % 1014,5 hPa 0,0 l/m 0 min 0 min 0,0 UV-I 13 W/m 14,2 km/h (3 Bft)
07.08.2014 20:46 21,7 C 20,0 C 77 % 1014,5 hPa 0,0 l/m 0 min 0 min 0,0 UV-I 12 W/m 14,2 km/h (3 Bft)
07.08.2014 20:48 21,6 C 20,0 C 77 % 1014,6 hPa 0,0 l/m 0 min 0 min 0,0 UV-I 11 W/m 0,0 km/h (0 Bft)
07.08.2014 20:50 21,6 C 20,0 C 78 % 1014,6 hPa 0,0 l/m 0 min 0 min 0,0 UV-I 11 W/m 0,0 km/h (0 Bft)
07.08.2014 20:52 21,4 C 19,4 C 78 % 1014,6 hPa 0,0 l/m 0 min 0 min 0,0 UV-I 11 W/m 0,0 km/h (0 Bft)
07.08.2014 20:54 21,3 C 19,4 C 79 % 1014,7 hPa 0,0 l/m 0 min 0 min 0,0 UV-I 9 W/m 0,0 km/h (0 Bft)
07.08.2014 20:56 21,3 C 19,4 C 79 % 1014,7 hPa 0,0 l/m 0 min 0 min 0,0 UV-I 9 W/m 0,0 km/h (0 Bft)
07.08.2014 20:58 21,2 C 19,4 C 80 % 1014,6 hPa 0,0 l/m 0 min 0 min 0,0 UV-I 8 W/m 0,0 km/h (0 Bft)
07.08.2014 21:00 21,1 C 19,4 C 80 % 1014,6 hPa 0,0 l/m 0 min 0 min 0,0 UV-I 7 W/m 0,0 km/h (0 Bft)
07.08.2014 21:02 21,1 C 19,4 C 80 % 1014,6 hPa 0,0 l/m 0 min 0 min 0,0 UV-I 7 W/m 0,0 km/h (0 Bft)
07.08.2014 21:04 21,1 C 19,4 C 80 % 1014,6 hPa 0,0 l/m 0 min 0 min 0,0 UV-I 7 W/m 0,0 km/h (0 Bft)
07.08.2014 21:06 21,1 C 19,4 C 80 % 1014,6 hPa 0,0 l/m 0 min 0 min 0,0 UV-I 0 W/m 0,0 km/h (0 Bft)
07.08.2014 21:08 21,0 C 19,4 C 81 % 1014,7 hPa 0,0 l/m 0 min 0 min 0,0 UV-I 0 W/m 0,0 km/h (0 Bft)
07.08.2014 21:10 21,0 C 19,4 C 81 % 1014,7 hPa 0,0 l/m 0 min 0 min 0,0 UV-I 0 W/m 0,0 km/h (0 Bft)
07.08.2014 21:12 20,9 C 19,4 C 81 % 1014,7 hPa 0,0 l/m 0 min 0 min 0,0 UV-I 0 W/m 0,0 km/h (0 Bft)
07.08.2014 21:14 20,9 C 18,9 C 81 % 1014,7 hPa 0,0 l/m 0 min 0 min 0,0 UV-I 0 W/m 0,0 km/h (0 Bft)
07.08.2014 21:16 20,8 C 18,9 C 81 % 1014,7 hPa 0,0 l/m 0 min 0 min 0,0 UV-I 0 W/m 0,0 km/h (0 Bft)
07.08.2014 21:18 20,7 C 18,9 C 82 % 1014,7 hPa 0,0 l/m 0 min 0 min 0,0 UV-I 0 W/m 0,0 km/h (0 Bft)
07.08.2014 21:20 20,6 C 18,9 C 82 % 1014,7 hPa 0,0 l/m 0 min 0 min 0,0 UV-I 0 W/m 0,0 km/h (0 Bft)
07.08.2014 21:22 20,6 C 18,9 C 83 % 1014,7 hPa 0,0 l/m 0 min 0 min 0,0 UV-I 0 W/m 0,0 km/h (0 Bft)
07.08.2014 21:24 20,5 C 18,9 C 83 % 1014,7 hPa 0,0 l/m 0 min 0 min 0,0 UV-I 0 W/m 0,0 km/h (0 Bft)
07.08.2014 21:26 20,4 C 18,9 C 83 % 1014,7 hPa 0,0 l/m 0 min 0 min 0,0 UV-I 0 W/m 0,0 km/h (0 Bft)
07.08.2014 21:28 20,4 C 18,3 C 83 % 1014,7 hPa 0,0 l/m 0 min 0 min 0,0 UV-I 0 W/m 0,0 km/h (0 Bft)
07.08.2014 21:30 20,4 C 18,3 C 83 % 1014,8 hPa 0,0 l/m 0 min 0 min 0,0 UV-I 0 W/m 0,0 km/h (0 Bft)
07.08.2014 21:32 20,3 C 18,3 C 83 % 1014,8 hPa 0,0 l/m 0 min 0 min 0,0 UV-I 0 W/m 0,0 km/h (0 Bft)
07.08.2014 21:34 20,3 C 18,3 C 84 % 1014,8 hPa 0,0 l/m 0 min 0 min 0,0 UV-I 0 W/m 0,0 km/h (0 Bft)
07.08.2014 21:36 20,3 C 18,3 C 84 % 1014,8 hPa 0,0 l/m 0 min 0 min 0,0 UV-I 0 W/m 0,0 km/h (0 Bft)
07.08.2014 21:38 20,2 C 18,3 C 84 % 1014,8 hPa 0,0 l/m 0 min 0 min 0,0 UV-I 0 W/m 0,0 km/h (0 Bft)
07.08.2014 21:40 20,1 C 18,3 C 84 % 1014,8 hPa 0,0 l/m 0 min 0 min 0,0 UV-I 0 W/m 0,0 km/h (0 Bft)
07.08.2014 21:42 20,1 C 18,3 C 85 % 1014,8 hPa 0,0 l/m 0 min 0 min 0,0 UV-I 0 W/m 0,0 km/h (0 Bft)
07.08.2014 21:44 20,0 C 17,8 C 85 % 1014,8 hPa 0,0 l/m 0 min 0 min 0,0 UV-I 0 W/m 0,0 km/h (0 Bft)
07.08.2014 21:46 19,9 C 17,8 C 85 % 1014,9 hPa 0,0 l/m 0 min 0 min 0,0 UV-I 0 W/m 0,0 km/h (0 Bft)
07.08.2014 21:48 19,8 C 17,8 C 85 % 1014,8 hPa 0,0 l/m 0 min 0 min 0,0 UV-I 0 W/m 0,0 km/h (0 Bft)
07.08.2014 21:50 19,8 C 17,8 C 85 % 1014,9 hPa 0,0 l/m 0 min 0 min 0,0 UV-I 0 W/m 0,0 km/h (0 Bft)
07.08.2014 21:52 19,7 C 17,2 C 86 % 1014,9 hPa 0,0 l/m 0 min 0 min 0,0 UV-I 0 W/m 0,0 km/h (0 Bft)
07.08.2014 21:54 19,6 C 17,2 C 86 % 1014,9 hPa 0,0 l/m 0 min 0 min 0,0 UV-I 0 W/m 0,0 km/h (0 Bft)
07.08.2014 21:56 19,5 C 17,2 C 86 % 1014,9 hPa 0,0 l/m 0 min 0 min 0,0 UV-I 0 W/m 0,0 km/h (0 Bft)
07.08.2014 21:58 19,4 C 17,2 C 87 % 1015,0 hPa 0,0 l/m 0 min 0 min 0,0 UV-I 0 W/m 0,0 km/h (0 Bft)
07.08.2014 22:00 19,4 C 17,2 C 87 % 1015,0 hPa 0,0 l/m 0 min 0 min 0,0 UV-I 0 W/m 0,0 km/h (0 Bft)
07.08.2014 22:02 19,3 C 17,2 C 87 % 1014,9 hPa 0,0 l/m 0 min 0 min 0,0 UV-I 0 W/m 0,0 km/h (0 Bft)
07.08.2014 22:04 19,3 C 17,2 C 87 % 1014,9 hPa 0,0 l/m 0 min 0 min 0,0 UV-I 0 W/m 0,0 km/h (0 Bft)
07.08.2014 22:06 19,3 C 17,2 C 87 % 1015,0 hPa 0,0 l/m 0 min 0 min 0,0 UV-I 0 W/m 0,0 km/h (0 Bft)
07.08.2014 22:08 19,3 C 16,7 C 87 % 1014,9 hPa 0,0 l/m 0 min 0 min 0,0 UV-I 0 W/m 0,0 km/h (0 Bft)
07.08.2014 22:10 19,3 C 16,7 C 87 % 1014,9 hPa 0,0 l/m 0 min 0 min 0,0 UV-I 0 W/m 0,0 km/h (0 Bft)
07.08.2014 22:12 19,2 C 16,7 C 87 % 1014,9 hPa 0,0 l/m 0 min 0 min 0,0 UV-I 0 W/m 0,0 km/h (0 Bft)
07.08.2014 22:14 19,1 C 16,7 C 88 % 1014,9 hPa 0,0 l/m 0 min 0 min 0,0 UV-I 0 W/m 0,0 km/h (0 Bft)
07.08.2014 22:16 19,1 C 16,7 C 88 % 1015,0 hPa 0,0 l/m 0 min 0 min 0,0 UV-I 0 W/m 0,0 km/h (0 Bft)
07.08.2014 22:18 19,1 C 16,7 C 88 % 1015,0 hPa 0,0 l/m 0 min 0 min 0,0 UV-I 0 W/m 0,0 km/h (0 Bft)
07.08.2014 22:20 19,1 C 16,7 C 88 % 1015,0 hPa 0,0 l/m 0 min 0 min 0,0 UV-I 0 W/m 0,0 km/h (0 Bft)
07.08.2014 22:22 19,1 C 16,7 C 88 % 1015,1 hPa 0,0 l/m 0 min 0 min 0,0 UV-I 0 W/m 0,0 km/h (0 Bft)
07.08.2014 22:24 19,0 C 16,7 C 88 % 1015,1 hPa 0,0 l/m 0 min 0 min 0,0 UV-I 0 W/m 0,0 km/h (0 Bft)
07.08.2014 22:26 19,0 C 16,7 C 89 % 1015,1 hPa 0,0 l/m 0 min 0 min 0,0 UV-I 0 W/m 0,0 km/h (0 Bft)
07.08.2014 22:28 19,0 C 16,7 C 89 % 1015,1 hPa 0,0 l/m 0 min 0 min 0,0 UV-I 0 W/m 0,0 km/h (0 Bft)
07.08.2014 22:30 18,9 C 16,7 C 88 % 1015,1 hPa 0,0 l/m 0 min 0 min 0,0 UV-I 0 W/m 0,0 km/h (0 Bft)
07.08.2014 22:32 19,0 C 16,7 C 89 % 1015,1 hPa 0,0 l/m 0 min 0 min 0,0 UV-I 0 W/m 0,0 km/h (0 Bft)
07.08.2014 22:34 19,0 C 16,7 C 88 % 1015,1 hPa 0,0 l/m 0 min 0 min 0,0 UV-I 0 W/m 0,0 km/h (0 Bft)
07.08.2014 22:36 18,9 C 16,7 C 89 % 1015,0 hPa 0,0 l/m 0 min 0 min 0,0 UV-I 0 W/m 0,0 km/h (0 Bft)
07.08.2014 22:38 18,9 C 16,7 C 89 % 1015,0 hPa 0,0 l/m 0 min 0 min 0,0 UV-I 0 W/m 0,0 km/h (0 Bft)
07.08.2014 22:40 18,9 C 16,7 C 89 % 1015,0 hPa 0,0 l/m 0 min 0 min 0,0 UV-I 0 W/m 0,0 km/h (0 Bft)
07.08.2014 22:42 18,9 C 16,7 C 89 % 1015,1 hPa 0,0 l/m 0 min 0 min 0,0 UV-I 0 W/m 0,0 km/h (0 Bft)
07.08.2014 22:44 18,9 C 16,7 C 89 % 1015,0 hPa 0,0 l/m 0 min 0 min 0,0 UV-I 0 W/m 0,0 km/h (0 Bft)
07.08.2014 22:46 18,9 C 16,7 C 89 % 1015,0 hPa 0,0 l/m 0 min 0 min 0,0 UV-I 0 W/m 0,0 km/h (0 Bft)
07.08.2014 22:48 18,9 C 16,7 C 89 % 1015,1 hPa 0,0 l/m 0 min 0 min 0,0 UV-I 0 W/m 0,0 km/h (0 Bft)
07.08.2014 22:50 18,9 C 16,7 C 89 % 1015,1 hPa 0,0 l/m 0 min 0 min 0,0 UV-I 0 W/m 0,0 km/h (0 Bft)
07.08.2014 22:52 18,9 C 16,7 C 89 % 1015,1 hPa 0,0 l/m 0 min 0 min 0,0 UV-I 0 W/m 0,0 km/h (0 Bft)
07.08.2014 22:54 18,9 C 16,7 C 89 % 1015,1 hPa 0,0 l/m 0 min 0 min 0,0 UV-I 0 W/m 0,0 km/h (0 Bft)
07.08.2014 22:56 18,9 C 16,7 C 89 % 1015,1 hPa 0,0 l/m 0 min 0 min 0,0 UV-I 0 W/m 0,0 km/h (0 Bft)
07.08.2014 22:58 18,9 C 16,7 C 89 % 1015,1 hPa 0,0 l/m 0 min 0 min 0,0 UV-I 0 W/m 0,0 km/h (0 Bft)
07.08.2014 23:00 18,9 C 16,7 C 89 % 1015,1 hPa 0,0 l/m 0 min 0 min 0,0 UV-I 0 W/m 0,0 km/h (0 Bft)
07.08.2014 23:02 18,9 C 16,7 C 89 % 1015,1 hPa 0,0 l/m 0 min 0 min 0,0 UV-I 0 W/m 0,0 km/h (0 Bft)
07.08.2014 23:04 18,9 C 16,7 C 89 % 1015,1 hPa 0,0 l/m 0 min 0 min 0,0 UV-I 0 W/m 0,0 km/h (0 Bft)
07.08.2014 23:06 18,9 C 17,2 C 89 % 1015,1 hPa 0,0 l/m 0 min 0 min 0,0 UV-I 0 W/m 0,0 km/h (0 Bft)
07.08.2014 23:08 18,9 C 17,2 C 89 % 1015,1 hPa 0,0 l/m 0 min 0 min 0,0 UV-I 0 W/m 0,0 km/h (0 Bft)
07.08.2014 23:10 18,9 C 17,2 C 89 % 1015,1 hPa 0,0 l/m 0 min 0 min 0,0 UV-I 0 W/m 0,0 km/h (0 Bft)
07.08.2014 23:12 18,9 C 17,2 C 90 % 1015,1 hPa 0,0 l/m 0 min 0 min 0,0 UV-I 0 W/m 0,0 km/h (0 Bft)
07.08.2014 23:14 18,9 C 17,2 C 90 % 1015,1 hPa 0,0 l/m 0 min 0 min 0,0 UV-I 0 W/m 0,0 km/h (0 Bft)
07.08.2014 23:16 18,8 C 16,7 C 90 % 1015,0 hPa 0,0 l/m 0 min 0 min 0,0 UV-I 0 W/m 0,0 km/h (0 Bft)
07.08.2014 23:18 18,8 C 16,7 C 90 % 1015,0 hPa 0,0 l/m 0 min 0 min 0,0 UV-I 0 W/m 0,0 km/h (0 Bft)
07.08.2014 23:20 18,7 C 16,7 C 90 % 1015,0 hPa 0,0 l/m 0 min 0 min 0,0 UV-I 0 W/m 0,0 km/h (0 Bft)
07.08.2014 23:22 18,7 C 16,7 C 90 % 1015,1 hPa 0,0 l/m 0 min 0 min 0,0 UV-I 0 W/m 0,0 km/h (0 Bft)
07.08.2014 23:24 18,6 C 16,7 C 91 % 1015,1 hPa 0,0 l/m 0 min 0 min 0,0 UV-I 0 W/m 0,0 km/h (0 Bft)
07.08.2014 23:26 18,6 C 16,7 C 91 % 1015,1 hPa 0,0 l/m 0 min 0 min 0,0 UV-I 0 W/m 0,0 km/h (0 Bft)
07.08.2014 23:28 18,5 C 16,7 C 91 % 1015,1 hPa 0,0 l/m 0 min 0 min 0,0 UV-I 0 W/m 0,0 km/h (0 Bft)
07.08.2014 23:30 18,5 C 16,7 C 91 % 1015,1 hPa 0,0 l/m 0 min 0 min 0,0 UV-I 0 W/m 0,0 km/h (0 Bft)
07.08.2014 23:32 18,5 C 16,7 C 91 % 1015,1 hPa 0,0 l/m 0 min 0 min 0,0 UV-I 0 W/m 0,0 km/h (0 Bft)
07.08.2014 23:34 18,4 C 16,7 C 91 % 1015,1 hPa 0,0 l/m 0 min 0 min 0,0 UV-I 0 W/m 0,0 km/h (0 Bft)
07.08.2014 23:36 18,4 C 16,7 C 92 % 1015,1 hPa 0,0 l/m 0 min 0 min 0,0 UV-I 0 W/m 0,0 km/h (0 Bft)
07.08.2014 23:38 18,4 C 16,7 C 91 % 1015,1 hPa 0,0 l/m 0 min 0 min 0,0 UV-I 0 W/m 0,0 km/h (0 Bft)
07.08.2014 23:40 18,4 C 16,1 C 91 % 1015,1 hPa 0,0 l/m 0 min 0 min 0,0 UV-I 0 W/m 0,0 km/h (0 Bft)
07.08.2014 23:42 18,4 C 16,1 C 91 % 1015,1 hPa 0,0 l/m 0 min 0 min 0,0 UV-I 0 W/m 0,0 km/h (0 Bft)
07.08.2014 23:44 18,4 C 16,1 C 92 % 1015,1 hPa 0,0 l/m 0 min 0 min 0,0 UV-I 0 W/m 0,0 km/h (0 Bft)
07.08.2014 23:46 18,4 C 16,1 C 92 % 1015,1 hPa 0,0 l/m 0 min 0 min 0,0 UV-I 0 W/m 0,0 km/h (0 Bft)
07.08.2014 23:48 18,4 C 16,1 C 92 % 1015,1 hPa 0,0 l/m 0 min 0 min 0,0 UV-I 0 W/m 0,0 km/h (0 Bft)
07.08.2014 23:50 18,4 C 16,1 C 92 % 1015,1 hPa 0,0 l/m 0 min 0 min 0,0 UV-I 0 W/m 0,0 km/h (0 Bft)
07.08.2014 23:52 18,3 C 16,1 C 91 % 1015,1 hPa 0,0 l/m 0 min 0 min 0,0 UV-I 0 W/m 0,0 km/h (0 Bft)
07.08.2014 23:54 18,2 C 16,1 C 91 % 1015,1 hPa 0,0 l/m 0 min 0 min 0,0 UV-I 0 W/m 0,0 km/h (0 Bft)
07.08.2014 23:56 18,2 C 16,1 C 92 % 1015,1 hPa 0,0 l/m 0 min 0 min 0,0 UV-I 0 W/m 0,0 km/h (0 Bft)
07.08.2014 23:58 18,2 C 16,1 C 92 % 1015,2 hPa 0,0 l/m 0 min 0 min 0,0 UV-I 0 W/m 0,0 km/h (0 Bft)
_ Min-Zeit 01:40 00:30 17:38 03:12 - - - - - 00:00
Minimum _ 15,9 C 15,0 C 66 % 1012,8 hPa - - - - - 0,0 km/h (0 Bft)
_ Max-Zeit 17:06 12:40 01:28 23:58 14:24 08:28 00:14 13:38 13:22 00:28
Maximum _ 25,3 C 24,4 C 99 % 1015,2 hPa 0,2 l/m 2 min 2 min 4,4 UV-I 916 W/m 35,4 km/h
SW (5 Bft)
Durchschnitt _ 19,9 C 18,8 C 86 % 1013,9 hPa #0,2 l/m #7:38 h #40 min. 2,2 UV-I 322 W/m 10,1 km/h (2 Bft)
© 2014 W. Hausmann